AT784 Weather Reports


time (UTC)temp
C
wind
direction
speed
KPH
gust
KPH
rain 1hr
cm
rain 24hr
cm
rain mn
cm
humidity
%
barometer
mb
20260507193306 9 240 8.0 16.1 0.00 0.00 0.00 49 1012.5
20260507193206 9 245 8.0 16.1 0.00 0.00 0.00 49 1012.5
20260507193107 9 247 8.0 16.1 0.00 0.00 0.00 50 1012.5
20260507193007 8 248 8.0 16.1 0.00 0.00 0.00 50 1012.5
20260507192907 8 245 8.0 16.1 0.00 0.00 0.00 49 1012.5
20260507192806 9 241 6.4 16.1 0.00 0.00 0.00 50 1012.6
20260507192706 9 239 6.4 16.1 0.00 0.00 0.00 49 1012.6
20260507192628 8 237 6.4 14.5 0.00 0.00 0.00 48 1012.6
20260507192506 8 239 6.4 16.1 0.00 0.00 0.00 48 1012.6
20260507192406 9 233 6.4 16.1 0.00 0.00 0.00 49 1012.6
20260507192327 9 230 6.4 16.1 0.00 0.00 0.00 49 1012.6
20260507192228 9 230 6.4 16.1 0.00 0.00 0.00 48 1012.6
20260507192107 9 237 6.4 16.1 0.00 0.00 0.00 47 1012.6
20260507192006 9 240 6.4 16.1 0.00 0.00 0.00 47 1012.6
20260507191906 8 241 6.4 16.1 0.00 0.00 0.00 48 1012.6
20260507191806 8 244 6.4 16.1 0.00 0.00 0.00 47 1012.7
20260507191728 8 246 6.4 16.1 0.00 0.00 0.00 45 1012.7
20260507191606 9 252 8.0 16.1 0.00 0.00 0.00 48 1012.7
20260507191527 9 249 8.0 17.7 0.00 0.00 0.00 49 1012.7
20260507191427 9 249 8.0 17.7 0.00 0.00 0.00 50 1012.7
20260507191306 8 251 8.0 17.7 0.00 0.00 0.00 49 1012.7
20260507191207 8 249 8.0 17.7 0.00 0.00 0.00 49 1012.7
20260507191107 8 246 8.0 17.7 0.00 0.00 0.00 49 1012.7
20260507191006 8 245 8.0 17.7 0.00 0.00 0.00 48 1012.8
20260507190927 8 245 8.0 17.7 0.00 0.00 0.00 50 1012.8
20260507190807 8 247 8.0 17.7 0.00 0.00 0.00 52 1012.8
20260507190707 8 242 8.0 17.7 0.00 0.00 0.00 51 1012.8
20260507190607 8 243 8.0 20.9 0.00 0.00 0.00 51 1012.8
20260507190506 8 245 8.0 20.9 0.00 0.00 0.00 50 1012.8
20260507190406 8 250 8.0 22.5 0.00 0.00 0.00 50 1012.8
20260507190307 9 249 8.0 22.5 0.00 0.00 0.00 51 1012.8
20260507190207 8 250 9.7 22.5 0.00 0.00 0.00 52 1012.8
20260507190106 8 252 9.7 22.5 0.00 0.00 0.00 52 1012.8
20260507190006 8 256 9.7 22.5 0.00 0.00 0.00 50 1012.8
20260507185907 8 258 9.7 22.5 0.00 0.00 0.00 50 1012.8
20260507185806 8 259 9.7 22.5 0.00 0.00 0.00 51 1012.8
20260507185706 8 261 9.7 22.5 0.00 0.00 0.00 50 1012.8
20260507185606 8 259 9.7 22.5 0.00 0.00 0.00 51 1012.8
20260507185506 8 258 8.0 22.5 0.00 0.00 0.00 51 1012.7
20260507185406 8 256 8.0 20.9 0.00 0.00 0.00 48 1012.7
20260507185306 8 255 8.0 17.7 0.00 0.00 0.00 48 1012.8
20260507185207 8 254 8.0 17.7 0.00 0.00 0.00 49 1012.8
20260507185106 8 252 9.7 20.9 0.00 0.00 0.00 50 1012.8
20260507185006 8 249 8.0 20.9 0.00 0.00 0.00 50 1012.8
20260507184906 8 247 8.0 20.9 0.00 0.00 0.00 49 1012.8
20260507184806 8 246 8.0 20.9 0.00 0.00 0.00 50 1012.8
20260507184728 8 246 8.0 20.9 0.00 0.00 0.00 50 1012.8
20260507184607 8 246 8.0 20.9 0.00 0.00 0.00 49 1012.7
20260507184506 8 248 8.0 20.9 0.00 0.00 0.00 49 1012.7
20260507184406 8 250 8.0 20.9 0.00 0.00 0.00 48 1012.7
20260507184327 8 251 8.0 20.9 0.00 0.00 0.00 48 1012.7
20260507184207 8 254 8.0 20.9 0.00 0.00 0.00 49 1012.7
20260507184128 8 254 8.0 20.9 0.00 0.00 0.00 49 1012.7
20260507184027 9 256 6.4 16.1 0.00 0.00 0.00 51 1012.6
20260507183927 9 255 6.4 16.1 0.00 0.00 0.00 51 1012.6
20260507183806 8 259 6.4 16.1 0.00 0.00 0.00 49 1012.6
20260507183706 8 257 8.0 16.1 0.00 0.00 0.00 48 1012.7
20260507183606 8 258 8.0 16.1 0.00 0.00 0.00 45 1012.7
20260507183506 8 256 8.0 20.9 0.00 0.00 0.00 44 1012.7
20260507183406 9 255 8.0 20.9 0.00 0.00 0.00 45 1012.6
20260507183307 9 255 8.0 20.9 0.00 0.00 0.00 46 1012.6
20260507183206 8 254 8.0 20.9 0.00 0.00 0.00 44 1012.7
20260507183127 8 252 8.0 20.9 0.00 0.00 0.00 46 1012.7
20260507183006 8 252 9.7 20.9 0.00 0.00 0.00 46 1012.7
20260507182906 8 253 9.7 20.9 0.00 0.00 0.00 45 1012.7
20260507182807 8 253 8.0 20.9 0.00 0.00 0.00 45 1012.7
20260507182706 8 252 8.0 20.9 0.00 0.00 0.00 45 1012.6
20260507182606 9 252 8.0 20.9 0.00 0.00 0.00 44 1012.6
20260507182527 9 253 8.0 19.3 0.00 0.00 0.00 45 1012.6
20260507182406 9 254 8.0 19.3 0.00 0.00 0.00 46 1012.6
20260507182307 9 255 8.0 19.3 0.00 0.00 0.00 46 1012.6
20260507182206 9 254 6.4 19.3 0.00 0.00 0.00 47 1012.6
20260507182107 8 257 6.4 19.3 0.00 0.00 0.00 46 1012.7
20260507182006 9 256 6.4 17.7 0.00 0.00 0.00 46 1012.7
20260507181906 9 258 6.4 17.7 0.00 0.00 0.00 48 1012.7
20260507181807 9 255 6.4 17.7 0.00 0.00 0.00 46 1012.7
20260507181727 8 253 6.4 17.7 0.00 0.00 0.00 46 1012.7
20260507181606 9 256 6.4 17.7 0.00 0.00 0.00 46 1012.7
20260507181506 9 256 6.4 16.1 0.00 0.00 0.00 46 1012.7
20260507181406 9 255 6.4 16.1 0.00 0.00 0.00 46 1012.7
20260507181328 9 254 6.4 16.1 0.00 0.00 0.00 46 1012.7
20260507181228 9 255 6.4 16.1 0.00 0.00 0.00 45 1012.7
20260507181127 9 254 8.0 16.1 0.00 0.00 0.00 46 1012.7
20260507181007 9 253 8.0 19.3 0.00 0.00 0.00 46 1012.7
20260507180927 9 252 8.0 19.3 0.00 0.00 0.00 48 1012.6
20260507180807 8 250 8.0 19.3 0.00 0.00 0.00 47 1012.6
20260507180706 9 253 8.0 19.3 0.00 0.00 0.00 46 1012.6
20260507180608 9 250 8.0 19.3 0.00 0.00 0.00 46 1012.6
20260507180506 9 249 8.0 19.3 0.00 0.00 0.00 48 1012.6
20260507180406 8 250 8.0 19.3 0.00 0.00 0.00 47 1012.7
20260507180307 8 250 8.0 19.3 0.00 0.00 0.00 45 1012.7
20260507180206 9 249 6.4 19.3 0.00 0.00 0.00 44 1012.7
20260507180106 9 252 6.4 17.7 0.00 0.00 0.00 47 1012.7
20260507180006 9 253 6.4 17.7 0.00 0.00 0.00 48 1012.7
20260507175906 9 256 4.8 17.7 0.00 0.00 0.00 47 1012.7
20260507175806 9 263 4.8 16.1 0.00 0.00 0.00 46 1012.7
20260507175706 9 268 4.8 16.1 0.00 0.00 0.00 46 1012.7
20260507175606 9 275 4.8 12.9 0.00 0.00 0.00 46 1012.6
20260507175506 9 282 4.8 11.3 0.00 0.00 0.00 47 1012.7
20260507175406 9 287 3.2 11.3 0.00 0.00 0.00 46 1012.7
20260507175307 9 298 3.2 11.3 0.00 0.00 0.00 46 1012.7
20260507175206 9 303 4.8 11.3 0.00 0.00 0.00 46 1012.7
20260507175106 9 301 4.8 11.3 0.00 0.00 0.00 47 1012.7
20260507175006 9 304 4.8 11.3 0.00 0.00 0.00 46 1012.7
20260507174927 9 304 4.8 11.3 0.00 0.00 0.00 47 1012.7
20260507174807 9 299 3.2 11.3 0.00 0.00 0.00 48 1012.7
20260507174707 9 293 3.2 11.3 0.00 0.00 0.00 50 1012.7
20260507174606 9 292 4.8 11.3 0.00 0.00 0.00 49 1012.7
20260507174506 9 296 4.8 11.3 0.00 0.00 0.00 48 1012.7
20260507174407 9 292 4.8 11.3 0.00 0.00 0.00 47 1012.7
20260507174327 9 287 4.8 11.3 0.00 0.00 0.00 48 1012.8
20260507174206 9 282 3.2 12.9 0.00 0.00 0.00 47 1012.8
20260507174106 9 285 3.2 12.9 0.00 0.00 0.00 47 1012.8
20260507174027 9 283 3.2 12.9 0.00 0.00 0.00 48 1012.8
20260507173906 8 276 4.8 12.9 0.00 0.00 0.00 48 1012.8
20260507173806 8 284 4.8 12.9 0.00 0.00 0.00 48 1012.8
20260507173706 8 289 4.8 12.9 0.00 0.00 0.00 48 1012.9
20260507173606 8 287 4.8 12.9 0.00 0.00 0.00 48 1012.9
20260507173506 8 283 4.8 12.9 0.00 0.00 0.00 48 1012.9
20260507173427 8 282 4.8 12.9 0.00 0.00 0.00 48 1012.9
20260507173328 8 283 3.2 12.9 0.00 0.00 0.00 49 1012.9
20260507173206 8 285 4.8 11.3 0.00 0.00 0.00 49 1012.9
20260507173127 8 281 4.8 12.9 0.00 0.00 0.00 49 1012.9
20260507173006 8 281 4.8 12.9 0.00 0.00 0.00 49 1013.0
20260507172906 8 282 4.8 12.9 0.00 0.00 0.00 49 1013.0
20260507172806 8 277 4.8 12.9 0.00 0.00 0.00 50 1013.0
20260507172706 8 274 4.8 12.9 0.00 0.00 0.00 49 1013.0
20260507172606 8 272 4.8 12.9 0.00 0.00 0.00 49 1013.0
20260507172506 8 270 4.8 12.9 0.00 0.00 0.00 49 1013.0
20260507172406 8 270 4.8 12.9 0.00 0.00 0.00 49 1013.1
20260507172308 8 274 6.4 12.9 0.00 0.00 0.00 49 1013.1
20260507172206 8 274 4.8 12.9 0.00 0.00 0.00 49 1013.1
20260507172107 8 277 6.4 12.9 0.00 0.00 0.00 49 1013.1
20260507172006 8 275 6.4 12.9 0.00 0.00 0.00 48 1013.1
20260507171906 8 271 6.4 19.3 0.00 0.00 0.00 50 1013.1
20260507171827 8 268 6.4 19.3 0.00 0.00 0.00 50 1013.1
20260507171727 8 267 6.4 19.3 0.00 0.00 0.00 50 1013.2
20260507171606 8 267 6.4 19.3 0.00 0.00 0.00 50 1013.2
20260507171506 8 266 6.4 19.3 0.00 0.00 0.00 49 1013.2
20260507171427 8 263 6.4 19.3 0.00 0.00 0.00 48 1013.3
20260507171306 8 262 6.4 19.3 0.00 0.00 0.00 51 1013.3
20260507171206 8 259 8.0 19.3 0.00 0.00 0.00 50 1013.3
20260507171106 8 258 8.0 19.3 0.00 0.00 0.00 50 1013.3
20260507171006 8 258 8.0 19.3 0.00 0.00 0.00 49 1013.3
20260507170928 8 258 8.0 19.3 0.00 0.00 0.00 48 1013.4
20260507170806 8 264 6.4 17.7 0.00 0.00 0.00 49 1013.4
20260507170706 8 265 6.4 17.7 0.00 0.00 0.00 50 1013.4
20260507170606 8 270 6.4 17.7 0.00 0.00 0.00 51 1013.4
20260507170506 8 276 6.4 17.7 0.00 0.00 0.00 51 1013.4
20260507170406 8 281 6.4 17.7 0.00 0.00 0.00 51 1013.4
20260507170306 8 283 6.4 17.7 0.00 0.00 0.00 51 1013.4
20260507170206 8 282 6.4 17.7 0.00 0.00 0.00 50 1013.4
20260507170106 8 286 4.8 17.7 0.00 0.00 0.00 50 1013.5
20260507170027 8 290 4.8 16.1 0.00 0.00 0.00 50 1013.5
20260507165927 8 295 4.8 16.1 0.00 0.00 0.00 50 1013.5
20260507165806 8 288 6.4 16.1 0.00 0.00 0.00 49 1013.5
20260507165706 8 287 6.4 19.3 0.00 0.00 0.00 48 1013.5
20260507165606 8 288 6.4 19.3 0.00 0.00 0.00 49 1013.5
20260507165527 8 286 6.4 19.3 0.00 0.00 0.00 49 1013.5
20260507165428 8 284 6.4 19.3 0.00 0.00 0.00 50 1013.4
20260507165307 8 286 4.8 19.3 0.00 0.00 0.00 49 1013.4
20260507165227 8 291 4.8 19.3 0.00 0.00 0.00 50 1013.4
20260507165106 8 284 6.4 19.3 0.00 0.00 0.00 49 1013.5
20260507165006 8 281 6.4 19.3 0.00 0.00 0.00 49 1013.5
20260507164906 8 279 6.4 19.3 0.00 0.00 0.00 49 1013.5
20260507164827 8 279 6.4 19.3 0.00 0.00 0.00 49 1013.5
20260507164706 8 287 6.4 14.5 0.00 0.00 0.00 49 1013.5
20260507164627 8 285 6.4 14.5 0.00 0.00 0.00 49 1013.5
20260507164506 8 288 6.4 14.5 0.00 0.00 0.00 49 1013.5
20260507164406 8 289 6.4 16.1 0.00 0.00 0.00 50 1013.5
20260507164306 8 288 6.4 16.1 0.00 0.00 0.00 50 1013.6
20260507164206 8 286 6.4 16.1 0.00 0.00 0.00 50 1013.6
20260507164106 8 288 6.4 16.1 0.00 0.00 0.00 50 1013.6
20260507164007 8 288 6.4 16.1 0.00 0.00 0.00 51 1013.7
20260507163906 8 291 6.4 16.1 0.00 0.00 0.00 50 1013.7
20260507163806 8 291 6.4 16.1 0.00 0.00 0.00 50 1013.7
20260507163727 8 289 6.4 16.1 0.00 0.00 0.00 50 1013.7
20260507163606 8 291 6.4 17.7 0.00 0.00 0.00 48 1013.7
20260507163527 8 289 6.4 17.7 0.00 0.00 0.00 47 1013.7
20260507163406 8 289 6.4 17.7 0.00 0.00 0.00 49 1013.7
20260507163306 8 291 6.4 17.7 0.00 0.00 0.00 49 1013.7
20260507163206 8 287 6.4 19.3 0.00 0.00 0.00 50 1013.8
20260507163106 8 292 6.4 19.3 0.00 0.00 0.00 49 1013.8
20260507163027 8 297 6.4 19.3 0.00 0.00 0.00 49 1013.8
20260507162906 8 296 6.4 19.3 0.00 0.00 0.00 48 1013.8
20260507162806 8 296 6.4 19.3 0.00 0.00 0.00 49 1013.9
20260507162706 8 295 6.4 19.3 0.00 0.00 0.00 49 1013.9
20260507162606 8 294 6.4 19.3 0.00 0.00 0.00 51 1013.9
20260507162506 8 293 6.4 19.3 0.00 0.00 0.00 50 1013.8
20260507162406 8 293 6.4 19.3 0.00 0.00 0.00 49 1013.8
20260507162307 8 293 6.4 19.3 0.00 0.00 0.00 49 1013.9
20260507162206 8 295 6.4 19.3 0.00 0.00 0.00 48 1013.9
20260507162106 8 294 4.8 19.3 0.00 0.00 0.00 48 1013.9
20260507162006 8 292 4.8 19.3 0.00 0.00 0.00 48 1013.8
20260507161927 8 289 4.8 19.3 0.00 0.00 0.00 48 1013.8
20260507161806 8 282 6.4 17.7 0.00 0.00 0.00 48 1013.8
20260507161706 9 276 6.4 17.7 0.00 0.00 0.00 49 1013.8
20260507161606 8 272 6.4 17.7 0.00 0.00 0.00 49 1013.8
20260507161506 9 270 6.4 17.7 0.00 0.00 0.00 49 1013.8
20260507161406 9 267 6.4 17.7 0.00 0.00 0.00 50 1013.8
20260507161306 8 267 6.4 17.7 0.00 0.00 0.00 50 1013.8
20260507161206 8 274 6.4 17.7 0.00 0.00 0.00 49 1013.9
20260507161106 8 270 6.4 17.7 0.00 0.00 0.00 49 1013.9
20260507161006 8 266 6.4 16.1 0.00 0.00 0.00 50 1013.9
20260507160906 8 269 4.8 14.5 0.00 0.00 0.00 49 1013.9
20260507160806 8 275 4.8 14.5 0.00 0.00 0.00 50 1013.9
20260507160706 8 280 6.4 14.5 0.00 0.00 0.00 51 1013.8
20260507160606 8 284 6.4 16.1 0.00 0.00 0.00 50 1013.8
20260507160506 8 289 4.8 16.1 0.00 0.00 0.00 49 1013.9
20260507160406 8 287 4.8 16.1 0.00 0.00 0.00 48 1013.9
20260507160306 8 285 4.8 16.1 0.00 0.00 0.00 52 1013.9
20260507160206 8 280 6.4 16.1 0.00 0.00 0.00 54 1013.9
20260507160106 8 286 6.4 16.1 0.00 0.00 0.00 52 1013.9
20260507160006 8 289 6.4 16.1 0.00 0.00 0.00 51 1013.9
20260507155906 8 288 6.4 17.7 0.00 0.00 0.00 51 1013.9
20260507155806 8 287 4.8 17.7 0.00 0.00 0.00 51 1013.9
20260507155706 8 288 4.8 17.7 0.00 0.00 0.00 53 1013.8
20260507155606 8 289 4.8 17.7 0.00 0.00 0.00 53 1013.8
20260507155527 8 288 4.8 17.7 0.00 0.00 0.00 53 1013.8
20260507155406 8 295 4.8 17.7 0.00 0.00 0.00 53 1013.9
20260507155307 8 298 4.8 17.7 0.00 0.00 0.00 53 1013.9
20260507155206 8 302 4.8 17.7 0.00 0.00 0.00 53 1014.0
20260507155106 8 303 4.8 17.7 0.00 0.00 0.00 53 1014.0
20260507155006 8 303 4.8 17.7 0.00 0.00 0.00 53 1014.0
20260507154906 8 293 6.4 20.9 0.00 0.00 0.00 53 1014.0
20260507154807 8 283 6.4 20.9 0.00 0.00 0.00 53 1014.0
20260507154706 8 278 6.4 20.9 0.00 0.00 0.00 54 1013.9
20260507154628 8 276 6.4 20.9 0.00 0.00 0.00 55 1013.9
20260507154527 8 272 6.4 20.9 0.00 0.00 0.00 55 1013.9
20260507154406 8 275 8.0 20.9 0.00 0.00 0.00 54 1014.1
20260507154306 8 274 8.0 20.9 0.00 0.00 0.00 54 1014.0
20260507154206 8 271 8.0 22.5 0.00 0.00 0.00 54 1014.0
20260507154127 8 268 8.0 22.5 0.00 0.00 0.00 55 1014.0
20260507154008 8 265 8.0 22.5 0.00 0.00 0.00 55 1014.0
20260507153906 8 264 8.0 22.5 0.00 0.00 0.00 55 1014.1
20260507153806 8 266 8.0 22.5 0.00 0.00 0.00 55 1014.0
20260507153707 8 269 8.0 22.5 0.00 0.00 0.00 54 1014.0
20260507153606 8 268 8.0 22.5 0.00 0.00 0.00 54 1014.0
20260507153506 8 265 8.0 22.5 0.00 0.00 0.00 54 1014.0
20260507153406 8 261 9.7 22.5 0.00 0.00 0.00 53 1014.0
20260507153306 8 263 9.7 22.5 0.00 0.00 0.00 52 1014.1
20260507153206 8 265 8.0 20.9 0.00 0.00 0.00 55 1014.1
20260507153106 8 263 8.0 20.9 0.00 0.00 0.00 54 1014.0
20260507153006 8 263 8.0 20.9 0.00 0.00 0.00 55 1014.0
20260507152906 8 265 8.0 20.9 0.00 0.00 0.00 56 1014.0
20260507152806 8 267 8.0 20.9 0.00 0.00 0.00 56 1014.0
20260507152706 8 265 8.0 20.9 0.00 0.00 0.00 56 1014.0
20260507152627 8 264 8.0 22.5 0.00 0.00 0.00 57 1014.0
20260507152506 8 268 8.0 22.5 0.00 0.00 0.00 56 1014.0
20260507152406 8 271 8.0 22.5 0.00 0.00 0.00 56 1014.0
20260507152327 8 268 8.0 22.5 0.00 0.00 0.00 56 1014.1
20260507152206 8 262 8.0 22.5 0.00 0.00 0.00 58 1014.1
20260507152127 8 265 8.0 22.5 0.00 0.00 0.00 58 1014.0
20260507152006 8 269 8.0 22.5 0.00 0.00 0.00 59 1014.1
20260507151927 7 270 8.0 22.5 0.00 0.00 0.00 59 1014.1
20260507151806 7 272 8.0 22.5 0.00 0.00 0.00 58 1014.1
20260507151706 8 273 8.0 22.5 0.00 0.00 0.00 57 1014.1
20260507151606 8 278 6.4 19.3 0.00 0.00 0.00 59 1014.0
20260507151505 8 282 8.0 19.3 0.00 0.00 0.00 59 1014.0
20260507151406 8 280 8.0 19.3 0.00 0.00 0.00 59 1014.0
20260507151306 8 283 6.4 19.3 0.00 0.00 0.00 60 1014.0
20260507151206 7 289 8.0 14.5 0.00 0.00 0.00 60 1014.0
20260507151106 7 290 8.0 14.5 0.00 0.00 0.00 57 1014.0
20260507151027 7 289 8.0 14.5 0.00 0.00 0.00 57 1014.0
20260507150906 7 283 8.0 17.7 0.00 0.00 0.00 58 1014.0
20260507150806 7 279 8.0 17.7 0.00 0.00 0.00 58 1014.0
20260507150706 7 278 8.0 17.7 0.00 0.00 0.00 58 1014.0
20260507150606 7 277 8.0 17.7 0.00 0.00 0.00 58 1014.0
20260507150506 7 274 8.0 17.7 0.00 0.00 0.00 61 1014.1
20260507150406 7 273 8.0 17.7 0.00 0.00 0.00 59 1014.1
20260507150306 7 274 8.0 17.7 0.00 0.00 0.00 60 1014.0
20260507150206 7 271 6.4 17.7 0.00 0.00 0.00 60 1014.0
20260507150106 7 267 8.0 17.7 0.00 0.00 0.00 61 1014.0
20260507150006 7 267 8.0 17.7 0.00 0.00 0.00 61 1014.0
20260507145906 8 268 6.4 17.7 0.00 0.00 0.00 61 1014.0
20260507145806 8 272 8.0 16.1 0.00 0.00 0.00 61 1013.9
20260507145706 8 269 8.0 16.1 0.00 0.00 0.00 61 1014.0
20260507145605 8 267 8.0 16.1 0.00 0.00 0.00 61 1014.0
20260507145506 7 271 8.0 16.1 0.00 0.00 0.00 62 1014.0
20260507145406 7 271 8.0 16.1 0.00 0.00 0.00 63 1013.9
20260507145327 7 270 8.0 16.1 0.00 0.00 0.00 63 1013.9
20260507145206 7 272 8.0 16.1 0.00 0.00 0.00 61 1013.9
20260507145105 7 271 8.0 19.3 0.00 0.00 0.00 63 1013.9
20260507145006 7 268 8.0 19.3 0.00 0.00 0.00 63 1013.9
20260507144906 7 271 6.4 19.3 0.00 0.00 0.00 64 1013.9
20260507144806 7 271 6.4 19.3 0.00 0.00 0.00 65 1013.9
20260507144706 7 272 6.4 19.3 0.00 0.00 0.00 63 1013.9
20260507144606 7 275 6.4 19.3 0.00 0.00 0.00 63 1013.9
20260507144506 7 271 6.4 19.3 0.00 0.00 0.00 63 1013.9
20260507144406 7 269 6.4 19.3 0.00 0.00 0.00 63 1013.9
20260507144306 7 265 6.4 19.3 0.00 0.00 0.00 63 1013.9
20260507144206 7 263 6.4 19.3 0.00 0.00 0.00 63 1013.8
20260507144105 7 265 6.4 17.7 0.00 0.00 0.00 63 1013.8
20260507144005 7 269 6.4 17.7 0.00 0.00 0.00 62 1013.9
20260507143906 7 268 6.4 17.7 0.00 0.00 0.00 62 1013.9
20260507143806 7 267 6.4 17.7 0.00 0.00 0.00 62 1013.9
20260507143706 7 267 6.4 17.7 0.00 0.00 0.00 62 1013.9
20260507143606 7 268 8.0 17.7 0.00 0.00 0.00 62 1013.9
20260507143506 7 269 6.4 14.5 0.00 0.00 0.00 62 1013.9
20260507143427 7 269 6.4 14.5 0.00 0.00 0.00 62 1013.9
20260507143306 7 274 6.4 17.7 0.00 0.00 0.00 61 1013.9
20260507143227 7 275 6.4 17.7 0.00 0.00 0.00 60 1013.8
20260507143127 7 279 6.4 17.7 0.00 0.00 0.00 60 1013.8
20260507143027 7 274 6.4 17.7 0.00 0.00 0.00 60 1013.9
20260507142906 7 276 6.4 17.7 0.00 0.00 0.00 61 1014.0
20260507142806 7 274 4.8 17.7 0.00 0.00 0.00 59 1014.0
20260507142706 7 272 6.4 17.7 0.00 0.00 0.00 58 1013.9
20260507142606 8 268 6.4 17.7 0.00 0.00 0.00 60 1013.9
20260507142506 8 264 6.4 17.7 0.00 0.00 0.00 62 1013.9
20260507142406 7 268 6.4 17.7 0.00 0.00 0.00 63 1013.9
20260507142307 7 267 8.0 16.1 0.00 0.00 0.00 62 1014.0
20260507142205 7 262 8.0 16.1 0.00 0.00 0.00 62 1014.0
20260507142126 7 260 8.0 19.3 0.00 0.00 0.00 62 1013.9
20260507142006 7 260 8.0 19.3 0.00 0.00 0.00 63 1013.9
20260507141906 7 259 8.0 19.3 0.00 0.00 0.00 63 1013.9
20260507141806 7 261 8.0 19.3 0.00 0.00 0.00 61 1014.0
20260507141705 7 264 8.0 19.3 0.00 0.00 0.00 64 1014.0
20260507141605 7 262 8.0 19.3 0.00 0.00 0.00 65 1013.9
20260507141505 7 263 6.4 19.3 0.00 0.00 0.00 65 1013.9
20260507141406 7 261 6.4 19.3 0.00 0.00 0.00 65 1013.9
20260507141306 7 264 6.4 19.3 0.00 0.00 0.00 64 1013.9
20260507141205 7 272 4.8 19.3 0.00 0.00 0.00 65 1013.9
20260507141105 7 273 6.4 14.5 0.00 0.00 0.00 65 1013.8
20260507141007 7 273 6.4 14.5 0.00 0.00 0.00 64 1013.8
20260507140906 7 271 6.4 24.1 0.00 0.00 0.00 64 1013.9
20260507140806 7 267 6.4 24.1 0.00 0.00 0.00 64 1013.8
20260507140706 7 267 6.4 24.1 0.00 0.00 0.00 65 1013.8
20260507140605 7 268 6.4 24.1 0.00 0.00 0.00 65 1013.9
20260507140505 7 267 8.0 24.1 0.00 0.00 0.00 64 1013.8
20260507140427 7 266 8.0 24.1 0.00 0.00 0.00 64 1013.8
20260507140306 7 264 6.4 24.1 0.00 0.00 0.00 64 1013.9
20260507140205 7 263 6.4 24.1 0.00 0.00 0.00 63 1013.9
20260507140106 7 265 6.4 24.1 0.00 0.00 0.00 63 1013.9
20260507140006 7 265 6.4 24.1 0.00 0.00 0.00 62 1013.9
20260507135906 7 267 6.4 17.7 0.00 0.00 0.00 62 1013.9
20260507135806 7 270 6.4 17.7 0.00 0.00 0.00 62 1013.9
20260507135706 7 276 4.8 17.7 0.00 0.00 0.00 63 1013.9
20260507135605 7 280 4.8 17.7 0.00 0.00 0.00 63 1013.8
20260507135506 7 286 4.8 14.5 0.00 0.00 0.00 65 1013.9
20260507135406 7 289 4.8 14.5 0.00 0.00 0.00 65 1013.9
20260507135306 7 290 4.8 14.5 0.00 0.00 0.00 64 1013.9
20260507135206 7 289 4.8 14.5 0.00 0.00 0.00 65 1013.9
20260507135105 7 291 4.8 14.5 0.00 0.00 0.00 65 1013.9
20260507135005 7 294 4.8 14.5 0.00 0.00 0.00 65 1013.9
20260507134906 7 295 4.8 14.5 0.00 0.00 0.00 65 1013.9
20260507134806 7 296 4.8 14.5 0.00 0.00 0.00 65 1014.0
20260507134706 7 290 4.8 14.5 0.00 0.00 0.00 65 1014.0
20260507134605 7 285 4.8 14.5 0.00 0.00 0.00 65 1014.0
20260507134527 7 286 4.8 14.5 0.00 0.00 0.00 65 1014.0
20260507134406 7 282 4.8 14.5 0.00 0.00 0.00 65 1014.0
20260507134306 7 280 4.8 14.5 0.00 0.00 0.00 65 1014.0
20260507134206 7 280 4.8 14.5 0.00 0.00 0.00 65 1013.9
20260507134106 7 278 4.8 14.5 0.00 0.00 0.00 65 1013.9
20260507134006 7 280 4.8 12.9 0.00 0.00 0.00 65 1014.0
20260507133906 7 275 4.8 12.9 0.00 0.00 0.00 66 1014.0
20260507133827 7 273 4.8 12.9 0.00 0.00 0.00 66 1013.9
20260507133706 7 275 4.8 12.9 0.00 0.00 0.00 65 1013.9
20260507133606 7 280 4.8 12.9 0.00 0.00 0.00 65 1013.9
20260507133527 7 277 4.8 12.9 0.00 0.00 0.00 67 1013.9
20260507133406 7 282 6.4 12.9 0.00 0.00 0.00 68 1013.9
20260507133305 7 281 6.4 17.7 0.00 0.00 0.00 69 1013.9
20260507133205 7 279 6.4 17.7 0.00 0.00 0.00 68 1013.9
20260507133105 7 277 6.4 17.7 0.00 0.00 0.00 69 1013.9
20260507133006 7 270 8.0 17.7 0.00 0.00 0.00 69 1013.9
20260507132906 7 268 8.0 20.9 0.00 0.00 0.00 69 1013.9
20260507132806 7 264 9.7 20.9 0.00 0.00 0.00 69 1013.9
20260507132706 7 261 9.7 20.9 0.00 0.00 0.00 69 1013.9
20260507132606 6 259 9.7 20.9 0.00 0.00 0.00 68 1013.9
20260507132506 6 259 8.0 20.9 0.00 0.00 0.00 67 1013.9
20260507132406 6 257 8.0 20.9 0.00 0.00 0.00 67 1013.9
20260507132307 7 257 8.0 20.9 0.00 0.00 0.00 68 1013.9
20260507132206 7 255 8.0 20.9 0.00 0.00 0.00 68 1013.8
20260507132105 6 254 8.0 20.9 0.00 0.00 0.00 68 1013.8
20260507132026 6 255 8.0 20.9 0.00 0.00 0.00 67 1013.8
20260507131906 7 256 8.0 19.3 0.00 0.00 0.00 68 1013.8
20260507131827 7 259 8.0 19.3 0.00 0.00 0.00 68 1013.8
20260507131706 6 261 8.0 16.1 0.00 0.00 0.00 70 1013.8
20260507131606 6 261 8.0 16.1 0.00 0.00 0.00 70 1013.8
20260507131505 6 261 8.0 16.1 0.00 0.00 0.00 70 1013.8
20260507131427 6 261 8.0 16.1 0.00 0.00 0.00 70 1013.7
20260507131306 6 258 8.0 16.1 0.00 0.00 0.00 69 1013.7
20260507131206 6 258 8.0 17.7 0.00 0.00 0.00 69 1013.7
20260507131106 6 259 8.0 17.7 0.00 0.00 0.00 70 1013.7
20260507131005 6 260 8.0 17.7 0.00 0.00 0.00 70 1013.7
20260507130905 6 260 8.0 17.7 0.00 0.00 0.00 70 1013.7
20260507130806 6 260 8.0 17.7 0.00 0.00 0.00 71 1013.7
20260507130705 6 259 8.0 17.7 0.00 0.00 0.00 71 1013.7
20260507130606 6 258 8.0 17.7 0.00 0.00 0.00 71 1013.7
20260507130526 6 259 8.0 17.7 0.00 0.00 0.00 71 1013.7
20260507130405 6 261 8.0 17.7 0.00 0.00 0.00 70 1013.6
20260507130305 6 264 6.4 17.7 0.00 0.00 0.00 70 1013.6
20260507130206 6 265 6.4 16.1 0.00 0.00 0.00 70 1013.6
20260507130106 6 265 6.4 16.1 0.00 0.00 0.00 71 1013.6
20260507130006 6 266 4.8 16.1 0.00 0.00 0.00 71 1013.6
20260507125906 6 267 4.8 16.1 0.00 0.00 0.00 71 1013.6
20260507125805 6 269 4.8 16.1 0.00 0.00 0.00 71 1013.6
20260507125706 6 273 4.8 16.1 0.00 0.00 0.00 71 1013.6
20260507125606 6 280 3.2 12.9 0.00 0.00 0.00 72 1013.5
20260507125506 6 279 3.2 12.9 0.00 0.00 0.00 72 1013.5
20260507125405 6 277 4.8 12.9 0.00 0.00 0.00 72 1013.4
20260507125307 6 277 4.8 12.9 0.00 0.00 0.00 73 1013.4
20260507125206 6 278 4.8 12.9 0.00 0.00 0.00 73 1013.4
20260507125106 6 275 4.8 12.9 0.00 0.00 0.00 73 1013.4
20260507125005 6 272 4.8 14.5 0.00 0.00 0.00 73 1013.4
20260507124906 6 269 4.8 14.5 0.00 0.00 0.00 72 1013.4
20260507124827 6 268 4.8 14.5 0.00 0.00 0.00 72 1013.4
20260507124706 6 263 4.8 14.5 0.00 0.00 0.00 72 1013.4
20260507124606 6 261 4.8 14.5 0.00 0.00 0.00 72 1013.3
20260507124527 6 263 4.8 14.5 0.00 0.00 0.00 73 1013.3
20260507124405 6 263 4.8 14.5 0.00 0.00 0.00 73 1013.3
20260507124327 6 261 4.8 14.5 0.00 0.00 0.00 73 1013.3
20260507124227 6 256 4.8 14.5 0.00 0.00 0.00 73 1013.3
20260507124127 6 258 3.2 14.5 0.00 0.00 0.00 74 1013.3
20260507124005 6 265 3.2 11.3 0.00 0.00 0.00 74 1013.3
20260507123906 6 269 3.2 11.3 0.00 0.00 0.00 74 1013.3
20260507123806 6 266 4.8 11.3 0.00 0.00 0.00 74 1013.3
20260507123706 6 267 4.8 12.9 0.00 0.00 0.00 75 1013.3
20260507123606 6 268 3.2 12.9 0.00 0.00 0.00 74 1013.3
20260507123505 6 263 4.8 12.9 0.00 0.00 0.00 75 1013.3
20260507123406 6 267 4.8 12.9 0.00 0.00 0.00 75 1013.3
20260507123306 6 271 4.8 12.9 0.00 0.00 0.00 75 1013.3
20260507123205 6 270 4.8 12.9 0.00 0.00 0.00 75 1013.3
20260507123105 6 270 4.8 12.9 0.00 0.00 0.00 75 1013.3
20260507123006 6 267 4.8 12.9 0.00 0.00 0.00 75 1013.3
20260507122906 6 267 4.8 12.9 0.00 0.00 0.00 75 1013.3
20260507122805 6 271 4.8 12.9 0.00 0.00 0.00 76 1013.3
20260507122706 6 276 4.8 12.9 0.00 0.00 0.00 76 1013.2
20260507122605 6 275 4.8 12.9 0.00 0.00 0.00 76 1013.2
20260507122506 6 274 4.8 12.9 0.00 0.00 0.00 76 1013.3
20260507122406 5 276 4.8 12.9 0.00 0.00 0.00 76 1013.3
20260507122326 5 276 4.8 12.9 0.00 0.00 0.00 76 1013.3
20260507122205 5 290 4.8 12.9 0.00 0.00 0.00 77 1013.2
20260507122127 5 291 4.8 12.9 0.00 0.00 0.00 76 1013.2
20260507122006 5 288 4.8 12.9 0.00 0.00 0.00 77 1013.2
20260507121905 5 287 4.8 12.9 0.00 0.00 0.00 77 1013.2
20260507121805 5 284 4.8 12.9 0.00 0.00 0.00 77 1013.2
20260507121726 5 280 4.8 12.9 0.00 0.00 0.00 77 1013.2
20260507121605 5 278 4.8 12.9 0.00 0.00 0.00 77 1013.2
20260507121506 5 278 4.8 12.9 0.00 0.00 0.00 77 1013.2
20260507121405 5 274 4.8 12.9 0.00 0.00 0.00 76 1013.2
20260507121305 5 270 3.2 11.3 0.00 0.00 0.00 77 1013.2
20260507121206 5 263 3.2 11.3 0.00 0.00 0.00 78 1013.2
20260507121105 5 262 3.2 11.3 0.00 0.00 0.00 78 1013.2
20260507121006 5 266 3.2 11.3 0.00 0.00 0.00 78 1013.2
20260507120905 5 265 3.2 14.5 0.00 0.00 0.00 78 1013.2
20260507120805 5 265 3.2 14.5 0.00 0.00 0.00 78 1013.2
20260507120706 5 268 3.2 14.5 0.00 0.00 0.00 78 1013.2
20260507120606 5 268 3.2 14.5 0.00 0.00 0.00 78 1013.2
20260507120505 5 264 4.8 14.5 0.00 0.00 0.00 78 1013.1
20260507120405 5 263 4.8 14.5 0.00 0.00 0.00 78 1013.2
20260507120305 5 266 4.8 14.5 0.00 0.00 0.00 78 1013.2
20260507120227 5 268 4.8 14.5 0.00 0.00 0.00 78 1013.1
20260507120105 5 264 6.4 14.5 0.00 0.00 0.00 78 1013.1
20260507120026 5 262 6.4 14.5 0.00 0.00 0.00 78 1013.1
20260507115905 5 259 6.4 14.5 0.00 0.00 0.00 78 1013.1
20260507115805 5 260 6.4 14.5 0.00 0.00 0.00 78 1013.1
20260507115706 5 259 6.4 14.5 0.00 0.00 0.00 78 1013.2
20260507115626 5 259 6.4 14.5 0.00 0.00 0.00 78 1013.2
20260507115505 5 263 6.4 14.5 0.00 0.00 0.00 78 1013.1
20260507115405 5 262 6.4 14.5 0.00 0.00 0.00 78 1013.1
20260507115307 5 258 6.4 14.5 0.00 0.00 0.00 78 1013.1
20260507115206 5 257 6.4 14.5 0.00 0.00 0.00 78 1013.2
20260507115105 5 257 6.4 17.7 0.00 0.00 0.00 78 1013.2
20260507115005 5 257 4.8 17.7 0.00 0.00 0.00 78 1013.2
20260507114905 5 259 4.8 17.7 0.00 0.00 0.00 79 1013.1
20260507114805 5 258 4.8 17.7 0.00 0.00 0.00 79 1013.1
20260507114726 5 258 4.8 17.7 0.00 0.00 0.00 79 1013.2
20260507114605 5 256 4.8 17.7 0.00 0.00 0.00 79 1013.1
20260507114505 5 256 4.8 17.7 0.00 0.00 0.00 79 1013.1
20260507114405 5 258 4.8 17.7 0.00 0.00 0.00 79 1013.1
20260507114306 5 263 4.8 17.7 0.00 0.00 0.00 79 1013.1
20260507114206 5 265 4.8 17.7 0.00 0.00 0.00 80 1013.1
20260507114126 5 264 4.8 16.1 0.00 0.00 0.00 80 1013.1
20260507114005 5 266 4.8 16.1 0.00 0.00 0.00 80 1013.0
20260507113906 5 267 4.8 16.1 0.00 0.00 0.00 80 1013.0
20260507113806 5 268 4.8 16.1 0.00 0.00 0.00 80 1013.0
20260507113706 5 269 4.8 14.5 0.00 0.00 0.00 80 1013.0
20260507113605 5 271 4.8 9.7 0.00 0.00 0.00 80 1012.9
20260507113505 5 272 4.8 9.7 0.00 0.00 0.00 80 1012.9
20260507113405 5 270 4.8 9.7 0.00 0.00 0.00 80 1013.0
20260507113305 5 266 4.8 9.7 0.00 0.00 0.00 80 1013.0
20260507113205 5 262 4.8 12.9 0.00 0.00 0.00 80 1013.0
20260507113105 5 263 4.8 12.9 0.00 0.00 0.00 80 1012.9
20260507113006 5 262 3.2 12.9 0.00 0.00 0.00 80 1012.9
20260507112905 5 258 3.2 12.9 0.00 0.00 0.00 80 1012.9
20260507112826 5 258 3.2 12.9 0.00 0.00 0.00 80 1012.9
20260507112726 5 260 3.2 12.9 0.00 0.00 0.00 80 1013.0
20260507112605 4 258 3.2 12.9 0.00 0.00 0.00 81 1013.0
20260507112505 4 259 3.2 12.9 0.00 0.00 0.00 81 1013.0
20260507112405 4 259 3.2 12.9 0.00 0.00 0.00 81 1012.9
20260507112307 4 258 3.2 12.9 0.00 0.00 0.00 81 1012.9
20260507112205 4 262 3.2 9.7 0.00 0.00 0.00 81 1012.9
20260507112105 4 265 1.6 9.7 0.00 0.00 0.00 81 1012.9
20260507112005 4 265 1.6 9.7 0.00 0.00 0.00 81 1012.9
20260507111905 4 267 1.6 8.0 0.00 0.00 0.00 81 1012.9
20260507111805 4 266 1.6 8.0 0.00 0.00 0.00 81 1012.9
20260507111706 4 262 1.6 8.0 0.00 0.00 0.00 81 1012.9
20260507111605 4 265 1.6 6.4 0.00 0.00 0.00 81 1012.9
20260507111506 4 263 1.6 6.4 0.00 0.00 0.00 81 1012.9
20260507111405 4 262 1.6 6.4 0.00 0.00 0.00 81 1012.9
20260507111305 4 261 1.6 8.0 0.00 0.00 0.00 81 1012.8
20260507111226 4 262 1.6 8.0 0.00 0.00 0.00 81 1012.8
20260507111126 4 262 1.6 8.0 0.00 0.00 0.00 81 1012.9
20260507111005 3 260 1.6 8.0 0.00 0.00 0.00 81 1012.9
20260507110906 3 261 1.6 8.0 0.00 0.00 0.00 82 1012.9
20260507110805 3 262 1.6 8.0 0.00 0.00 0.00 82 1012.9
20260507110705 3 263 1.6 8.0 0.00 0.00 0.00 82 1012.9
20260507110605 3 262 1.6 8.0 0.00 0.00 0.00 82 1012.8
20260507110527 3 261 1.6 8.0 0.00 0.00 0.00 82 1012.8
20260507110405 3 0 0.0 8.0 0.00 0.00 0.00 82 1012.8
20260507110305 3 0 0.0 3.2 0.00 0.00 0.00 83 1012.8
20260507110226 3 0 0.0 3.2 0.00 0.00 0.00 82 1012.8
20260507110105 3 0 0.0 3.2 0.00 0.00 0.00 83 1012.7
20260507110005 3 0 0.0 3.2 0.00 0.00 0.00 83 1012.7
20260507105906 3 0 0.0 3.2 0.00 0.00 0.00 82 1012.7
20260507105805 3 0 0.0 3.2 0.00 0.00 0.00 82 1012.7
20260507105705 3 0 0.0 3.2 0.00 0.00 0.00 81 1012.7
20260507105605 3 0 0.0 3.2 0.00 0.00 0.00 81 1012.7
20260507105505 3 0 0.0 3.2 0.00 0.00 0.00 81 1012.7
20260507105405 3 0 0.0 3.2 0.00 0.00 0.00 81 1012.7
20260507105307 3 0 0.0 3.2 0.00 0.00 0.00 81 1012.7
20260507105205 3 0 0.0 3.2 0.00 0.00 0.00 81 1012.7
20260507105106 3 0 0.0 3.2 0.00 0.00 0.00 81 1012.7
20260507105005 3 0 0.0 3.2 0.00 0.00 0.00 81 1012.7
20260507104905 3 0 0.0 3.2 0.00 0.00 0.00 81 1012.7
20260507104805 3 0 0.0 3.2 0.00 0.00 0.00 81 1012.7
20260507104705 3 0 0.0 3.2 0.00 0.00 0.00 81 1012.7
20260507104606 3 0 0.0 3.2 0.00 0.00 0.00 81 1012.7
20260507104506 3 0 0.0 3.2 0.00 0.00 0.00 81 1012.6
20260507104405 3 0 0.0 3.2 0.00 0.00 0.00 82 1012.6
20260507104305 3 0 0.0 3.2 0.00 0.00 0.00 82 1012.6
20260507104205 3 0 0.0 3.2 0.00 0.00 0.00 82 1012.6
20260507104105 2 0 0.0 3.2 0.00 0.00 0.00 81 1012.6
20260507104005 2 0 0.0 1.6 0.00 0.00 0.00 81 1012.6
20260507103905 2 0 0.0 1.6 0.00 0.00 0.00 81 1012.6
20260507103805 2 0 0.0 1.6 0.00 0.00 0.00 81 1012.6
20260507103705 2 0 0.0 1.6 0.00 0.00 0.00 81 1012.6
20260507103605 2 0 0.0 1.6 0.00 0.00 0.00 81 1012.6
20260507103526 2 0 0.0 1.6 0.00 0.00 0.00 81 1012.6
20260507103426 2 0 0.0 1.6 0.00 0.00 0.00 80 1012.6
20260507103305 2 0 0.0 1.6 0.00 0.00 0.00 80 1012.5
20260507103205 2 0 0.0 1.6 0.00 0.00 0.00 80 1012.5
20260507103105 2 0 0.0 0.0 0.00 0.00 0.00 80 1012.5
20260507103027 2 0 0.0 0.0 0.00 0.00 0.00 80 1012.5
20260507102905 3 0 0.0 0.0 0.00 0.00 0.00 79 1012.5
20260507102805 3 0 0.0 0.0 0.00 0.00 0.00 80 1012.5
20260507102705 3 0 0.0 0.0 0.00 0.00 0.00 79 1012.5
20260507102606 3 0 0.0 0.0 0.00 0.00 0.00 79 1012.5
20260507102505 3 0 0.0 0.0 0.00 0.00 0.00 79 1012.5
20260507102405 3 0 0.0 0.0 0.00 0.00 0.00 79 1012.5
20260507102307 3 0 0.0 0.0 0.00 0.00 0.00 79 1012.5
20260507102205 3 0 0.0 0.0 0.00 0.00 0.00 78 1012.5
20260507102105 3 0 0.0 0.0 0.00 0.00 0.00 78 1012.4
20260507102007 3 0 0.0 0.0 0.00 0.00 0.00 78 1012.5
20260507101926 3 0 0.0 0.0 0.00 0.00 0.00 78 1012.5
20260507101805 3 0 0.0 1.6 0.00 0.00 0.00 78 1012.5
20260507101705 3 0 0.0 1.6 0.00 0.00 0.00 78 1012.5
20260507101626 3 0 0.0 1.6 0.00 0.00 0.00 77 1012.5
20260507101506 3 0 0.0 1.6 0.00 0.00 0.00 77 1012.5
20260507101405 3 0 0.0 1.6 0.00 0.00 0.00 77 1012.5
20260507101308 3 0 0.0 1.6 0.00 0.00 0.00 77 1012.5
20260507101205 3 0 0.0 1.6 0.00 0.00 0.00 77 1012.5
20260507101105 3 0 0.0 1.6 0.00 0.00 0.00 77 1012.5
20260507101007 3 0 0.0 1.6 0.00 0.00 0.00 77 1012.5
20260507100926 3 0 0.0 1.6 0.00 0.00 0.00 76 1012.5
20260507100805 3 0 0.0 0.0 0.00 0.00 0.00 76 1012.5
20260507100726 3 0 0.0 0.0 0.00 0.00 0.00 76 1012.5
20260507100605 3 0 0.0 1.6 0.00 0.00 0.00 76 1012.5
20260507100505 3 0 0.0 1.6 0.00 0.00 0.00 76 1012.4
20260507100405 3 0 0.0 1.6 0.00 0.00 0.00 76 1012.4
20260507100326 3 0 0.0 1.6 0.00 0.00 0.00 76 1012.4
20260507100226 4 0 0.0 1.6 0.00 0.00 0.00 76 1012.4
20260507100105 4 0 0.0 1.6 0.00 0.00 0.00 76 1012.4
20260507100005 4 0 0.0 1.6 0.00 0.00 0.00 76 1012.4
20260507095905 4 0 0.0 1.6 0.00 0.00 0.00 76 1012.4
20260507095805 4 0 0.0 1.6 0.00 0.00 0.00 76 1012.4
20260507095705 4 0 0.0 1.6 0.00 0.00 0.00 76 1012.5
20260507095605 4 0 0.0 1.6 0.00 0.00 0.00 76 1012.5
20260507095505 4 0 0.0 1.6 0.00 0.00 0.00 76 1012.4
20260507095405 4 0 0.0 1.6 0.00 0.00 0.00 76 1012.4
20260507095306 4 0 0.0 1.6 0.00 0.00 0.00 76 1012.5
20260507095205 4 0 0.0 1.6 0.00 0.00 0.00 76 1012.5
20260507095105 4 0 0.0 1.6 0.00 0.00 0.00 75 1012.5
20260507095005 4 0 0.0 1.6 0.00 0.00 0.00 75 1012.5
20260507094905 4 0 0.0 1.6 0.00 0.00 0.00 75 1012.5
20260507094805 4 0 0.0 1.6 0.00 0.00 0.00 75 1012.5
20260507094705 4 0 0.0 1.6 0.00 0.00 0.00 75 1012.5
20260507094605 4 0 0.0 1.6 0.00 0.00 0.00 75 1012.5
20260507094505 4 0 0.0 1.6 0.00 0.00 0.00 75 1012.5
20260507094405 4 0 0.0 1.6 0.00 0.00 0.00 74 1012.5
20260507094326 4 0 0.0 1.6 0.00 0.00 0.00 74 1012.5
20260507094205 4 0 0.0 4.8 0.00 0.00 0.00 74 1012.5
20260507094105 4 0 0.0 4.8 0.00 0.00 0.00 74 1012.5
20260507094005 4 0 0.0 4.8 0.00 0.00 0.00 74 1012.5
20260507093926 4 0 0.0 4.8 0.00 0.00 0.00 74 1012.5
20260507093805 5 0 0.0 4.8 0.00 0.00 0.00 74 1012.5
20260507093726 5 0 0.0 4.8 0.00 0.00 0.00 74 1012.5
20260507093605 5 0 0.0 4.8 0.00 0.00 0.00 73 1012.5
20260507093505 5 0 0.0 4.8 0.00 0.00 0.00 73 1012.5
20260507093405 5 0 0.0 4.8 0.00 0.00 0.00 74 1012.5
20260507093326 5 0 0.0 4.8 0.00 0.00 0.00 74 1012.5
20260507093205 5 0 0.0 3.2 0.00 0.00 0.00 73 1012.4
20260507093105 5 0 0.0 1.6 0.00 0.00 0.00 73 1012.5
20260507093005 5 0 0.0 1.6 0.00 0.00 0.00 73 1012.5
20260507092905 5 0 0.0 1.6 0.00 0.00 0.00 73 1012.5
20260507092805 5 0 0.0 1.6 0.00 0.00 0.00 73 1012.5
20260507092705 5 0 0.0 1.6 0.00 0.00 0.00 73 1012.4
20260507092605 5 0 0.0 1.6 0.00 0.00 0.00 73 1012.5
20260507092505 5 0 0.0 3.2 0.00 0.00 0.00 72 1012.5
20260507092405 5 0 0.0 4.8 0.00 0.00 0.00 72 1012.4
20260507092307 5 0 0.0 4.8 0.00 0.00 0.00 72 1012.5
20260507092205 5 0 0.0 4.8 0.00 0.00 0.00 72 1012.5
20260507092126 5 0 0.0 4.8 0.00 0.00 0.00 72 1012.5
20260507092005 5 0 0.0 4.8 0.00 0.00 0.00 72 1012.4
20260507091905 5 0 0.0 4.8 0.00 0.00 0.00 72 1012.4
20260507091805 5 0 0.0 4.8 0.00 0.00 0.00 72 1012.4
20260507091705 5 0 0.0 4.8 0.00 0.00 0.00 72 1012.4
20260507091605 5 0 0.0 4.8 0.00 0.00 0.00 72 1012.4
20260507091505 5 0 0.0 4.8 0.00 0.00 0.00 72 1012.5
20260507091405 5 0 0.0 3.2 0.00 0.00 0.00 72 1012.5
20260507091306 5 0 0.0 3.2 0.00 0.00 0.00 71 1012.5
20260507091206 5 0 0.0 1.6 0.00 0.00 0.00 71 1012.5
20260507091105 5 0 0.0 1.6 0.00 0.00 0.00 71 1012.5
20260507091005 5 0 0.0 3.2 0.00 0.00 0.00 71 1012.5
20260507090905 5 0 0.0 3.2 0.00 0.00 0.00 71 1012.5
20260507090805 5 0 0.0 3.2 0.00 0.00 0.00 71 1012.5
20260507090705 5 0 0.0 3.2 0.00 0.00 0.00 71 1012.5
20260507090626 5 0 0.0 3.2 0.00 0.00 0.00 70 1012.5
20260507090505 5 0 0.0 3.2 0.00 0.00 0.00 70 1012.5
20260507090405 5 0 0.0 3.2 0.00 0.00 0.00 70 1012.5
20260507090305 5 0 0.0 3.2 0.00 0.00 0.00 70 1012.5
20260507090226 5 0 0.0 3.2 0.00 0.00 0.00 70 1012.5
20260507090126 5 0 0.0 3.2 0.00 0.00 0.00 70 1012.5
20260507090006 5 0 0.0 3.2 0.00 0.00 0.00 70 1012.5
20260507085905 5 0 0.0 3.2 0.00 0.00 0.00 70 1012.5
20260507085805 5 0 0.0 3.2 0.00 0.00 0.00 70 1012.5
20260507085705 5 0 0.0 4.8 0.00 0.00 0.00 69 1012.5
20260507085605 5 0 0.0 4.8 0.00 0.00 0.00 69 1012.5
20260507085505 5 0 0.0 4.8 0.00 0.00 0.00 69 1012.5
20260507085405 5 282 1.6 6.4 0.00 0.00 0.00 69 1012.5
20260507085326 5 280 1.6 6.4 0.00 0.00 0.00 69 1012.6
20260507085205 5 0 0.0 6.4 0.00 0.00 0.00 69 1012.6
20260507085105 5 273 1.6 6.4 0.00 0.00 0.00 69 1012.6
20260507085005 5 277 1.6 6.4 0.00 0.00 0.00 68 1012.6
20260507084926 5 286 1.6 6.4 0.00 0.00 0.00 68 1012.6
20260507084805 5 293 1.6 6.4 0.00 0.00 0.00 68 1012.6
20260507084705 5 294 1.6 6.4 0.00 0.00 0.00 68 1012.6
20260507084605 5 291 1.6 6.4 0.00 0.00 0.00 68 1012.6
20260507084526 5 292 1.6 6.4 0.00 0.00 0.00 68 1012.7
20260507084405 6 295 1.6 8.0 0.00 0.00 0.00 68 1012.7
20260507084305 6 295 1.6 8.0 0.00 0.00 0.00 68 1012.7
20260507084226 6 295 1.6 8.0 0.00 0.00 0.00 68 1012.6
20260507084105 6 296 1.6 8.0 0.00 0.00 0.00 68 1012.6
20260507084005 6 293 1.6 8.0 0.00 0.00 0.00 68 1012.7
20260507083905 6 291 1.6 8.0 0.00 0.00 0.00 68 1012.7
20260507083805 6 290 1.6 8.0 0.00 0.00 0.00 67 1012.7
20260507083705 6 292 1.6 8.0 0.00 0.00 0.00 67 1012.7
20260507083626 6 296 1.6 8.0 0.00 0.00 0.00 67 1012.7
20260507083505 6 295 1.6 8.0 0.00 0.00 0.00 67 1012.7
20260507083405 6 296 1.6 8.0 0.00 0.00 0.00 67 1012.7
20260507083305 6 295 3.2 8.0 0.00 0.00 0.00 67 1012.7
20260507083205 6 298 1.6 8.0 0.00 0.00 0.00 67 1012.7
20260507083105 6 297 1.6 8.0 0.00 0.00 0.00 67 1012.7
20260507083005 6 293 3.2 8.0 0.00 0.00 0.00 67 1012.7
20260507082926 6 292 3.2 8.0 0.00 0.00 0.00 67 1012.7
20260507082826 6 295 3.2 8.0 0.00 0.00 0.00 67 1012.7
20260507082705 6 293 3.2 9.7 0.00 0.00 0.00 67 1012.8
20260507082605 6 290 3.2 9.7 0.00 0.00 0.00 67 1012.8
20260507082505 6 289 1.6 9.7 0.00 0.00 0.00 67 1012.8
20260507082405 6 290 1.6 9.7 0.00 0.00 0.00 67 1012.7
20260507082306 6 291 1.6 9.7 0.00 0.00 0.00 67 1012.7
20260507082205 6 289 1.6 9.7 0.00 0.00 0.00 67 1012.8
20260507082105 6 293 1.6 9.7 0.00 0.00 0.00 67 1012.7
20260507082005 6 297 1.6 9.7 0.00 0.00 0.00 67 1012.7
20260507081905 6 286 1.6 9.7 0.00 0.00 0.00 67 1012.7
20260507081805 6 283 1.6 9.7 0.00 0.00 0.00 67 1012.7
20260507081705 6 270 1.6 9.7 0.00 0.00 0.00 68 1012.7
20260507081605 6 268 1.6 6.4 0.00 0.00 0.00 68 1012.8
20260507081505 6 273 1.6 8.0 0.00 0.00 0.00 68 1012.8
20260507081405 6 277 1.6 8.0 0.00 0.00 0.00 68 1012.8
20260507081305 6 277 3.2 8.0 0.00 0.00 0.00 68 1012.8
20260507081205 6 278 3.2 8.0 0.00 0.00 0.00 68 1012.8
20260507081105 6 276 3.2 8.0 0.00 0.00 0.00 68 1012.7
20260507081005 6 276 3.2 8.0 0.00 0.00 0.00 68 1012.7
20260507080905 6 281 3.2 11.3 0.00 0.00 0.00 68 1012.8
20260507080805 6 281 3.2 11.3 0.00 0.00 0.00 68 1012.8
20260507080705 6 287 3.2 11.3 0.00 0.00 0.00 68 1012.8
20260507080605 6 287 3.2 11.3 0.00 0.00 0.00 68 1012.8
20260507080505 6 287 3.2 11.3 0.00 0.00 0.00 68 1012.8
20260507080405 6 285 3.2 11.3 0.00 0.00 0.00 68 1012.9
20260507080306 6 285 1.6 11.3 0.00 0.00 0.00 68 1012.8
20260507080226 6 284 1.6 11.3 0.00 0.00 0.00 68 1012.8
20260507080105 6 284 3.2 11.3 0.00 0.00 0.00 68 1012.8
20260507080026 6 287 3.2 11.3 0.00 0.00 0.00 68 1012.8
20260507075926 6 285 3.2 9.7 0.00 0.00 0.00 68 1012.9
20260507075805 6 287 3.2 11.3 0.00 0.00 0.00 67 1012.9
20260507075705 6 286 3.2 11.3 0.00 0.00 0.00 68 1012.9
20260507075605 6 284 3.2 11.3 0.00 0.00 0.00 67 1012.8
20260507075526 6 284 3.2 11.3 0.00 0.00 0.00 67 1012.8
20260507075426 6 284 3.2 11.3 0.00 0.00 0.00 68 1012.8
20260507075307 6 286 3.2 11.3 0.00 0.00 0.00 68 1012.8
20260507075205 6 287 3.2 12.9 0.00 0.00 0.00 67 1012.8
20260507075126 6 289 3.2 12.9 0.00 0.00 0.00 67 1012.8
20260507075005 6 286 3.2 12.9 0.00 0.00 0.00 67 1012.8
20260507074905 6 287 3.2 12.9 0.00 0.00 0.00 67 1012.8
20260507074805 6 284 1.6 12.9 0.00 0.00 0.00 67 1012.8
20260507074726 6 283 1.6 12.9 0.00 0.00 0.00 67 1012.8
20260507074605 6 281 1.6 12.9 0.00 0.00 0.00 67 1012.8
20260507074505 6 278 1.6 12.9 0.00 0.00 0.00 67 1012.8
20260507074426 6 277 1.6 12.9 0.00 0.00 0.00 67 1012.8
20260507074305 6 269 1.6 12.9 0.00 0.00 0.00 67 1012.8
20260507074226 6 266 1.6 12.9 0.00 0.00 0.00 67 1012.8
20260507074105 6 268 1.6 11.3 0.00 0.00 0.00 67 1012.8
20260507074026 6 268 1.6 11.3 0.00 0.00 0.00 67 1012.9
20260507073905 6 264 1.6 8.0 0.00 0.00 0.00 67 1012.9
20260507073805 6 265 1.6 8.0 0.00 0.00 0.00 67 1012.9
20260507073704 6 264 1.6 8.0 0.00 0.00 0.00 67 1012.8
20260507073605 6 271 1.6 8.0 0.00 0.00 0.00 67 1012.8
20260507073505 6 273 1.6 8.0 0.00 0.00 0.00 67 1012.8
20260507073405 6 274 1.6 8.0 0.00 0.00 0.00 67 1012.8
20260507073305 6 281 1.6 8.0 0.00 0.00 0.00 67 1012.8
20260507073205 6 285 1.6 9.7 0.00 0.00 0.00 67 1012.8
20260507073105 6 286 1.6 9.7 0.00 0.00 0.00 66 1012.8
20260507073005 6 284 1.6 9.7 0.00 0.00 0.00 66 1012.9
20260507072905 6 282 1.6 9.7 0.00 0.00 0.00 66 1012.9
20260507072805 6 285 3.2 12.9 0.00 0.00 0.00 66 1012.9
20260507072705 6 291 3.2 12.9 0.00 0.00 0.00 66 1012.9
20260507072626 6 294 3.2 12.9 0.00 0.00 0.00 65 1012.9
20260507072526 6 298 3.2 12.9 0.00 0.00 0.00 65 1012.8
20260507072405 6 298 3.2 12.9 0.00 0.00 0.00 65 1012.9
20260507072307 6 300 3.2 12.9 0.00 0.00 0.00 65 1012.9
20260507072226 6 304 3.2 12.9 0.00 0.00 0.00 65 1012.8
20260507072105 6 304 3.2 12.9 0.00 0.00 0.00 65 1012.8
20260507072005 6 304 3.2 12.9 0.00 0.00 0.00 64 1012.9
20260507071905 6 308 1.6 12.9 0.00 0.00 0.00 64 1012.8
20260507071805 6 312 1.6 9.7 0.00 0.00 0.00 63 1012.8
20260507071705 6 307 1.6 9.7 0.00 0.00 0.00 64 1012.9
20260507071605 6 299 1.6 9.7 0.00 0.00 0.00 64 1012.9
20260507071505 6 293 1.6 9.7 0.00 0.00 0.00 64 1012.9
20260507071404 6 299 1.6 8.0 0.00 0.00 0.00 63 1012.9
20260507071305 6 294 1.6 8.0 0.00 0.00 0.00 63 1012.9
20260507071205 6 290 1.6 6.4 0.00 0.00 0.00 63 1012.9
20260507071105 6 289 1.6 8.0 0.00 0.00 0.00 63 1012.9
20260507071004 6 292 3.2 8.0 0.00 0.00 0.00 63 1012.8
20260507070905 6 292 3.2 9.7 0.00 0.00 0.00 63 1012.9
20260507070805 6 293 3.2 9.7 0.00 0.00 0.00 63 1012.9
20260507070726 6 291 3.2 9.7 0.00 0.00 0.00 63 1013.0
20260507070605 6 289 3.2 9.7 0.00 0.00 0.00 63 1012.9
20260507070505 6 289 3.2 9.7 0.00 0.00 0.00 62 1012.9
20260507070405 6 287 3.2 9.7 0.00 0.00 0.00 62 1012.9
20260507070305 6 286 3.2 9.7 0.00 0.00 0.00 62 1012.9
20260507070205 6 282 3.2 9.7 0.00 0.00 0.00 62 1013.0
20260507070105 6 284 3.2 16.1 0.00 0.00 0.00 62 1012.9
20260507070027 6 282 3.2 16.1 0.00 0.00 0.00 62 1012.9
20260507065905 6 285 3.2 16.1 0.00 0.00 0.00 62 1013.0
20260507065805 6 288 3.2 16.1 0.00 0.00 0.00 62 1013.0
20260507065704 6 293 1.6 16.1 0.00 0.00 0.00 62 1013.0
20260507065626 6 292 1.6 16.1 0.00 0.00 0.00 62 1013.0
20260507065505 6 291 1.6 16.1 0.00 0.00 0.00 62 1013.0
20260507065405 7 292 1.6 16.1 0.00 0.00 0.00 62 1013.0
20260507065326 7 295 1.6 16.1 0.00 0.00 0.00 62 1013.0
20260507065205 7 298 3.2 16.1 0.00 0.00 0.00 61 1013.0
20260507065105 7 297 3.2 14.5 0.00 0.00 0.00 61 1013.0
20260507065005 7 301 3.2 12.9 0.00 0.00 0.00 61 1013.1
20260507064926 7 302 3.2 12.9 0.00 0.00 0.00 62 1013.1
20260507064805 7 299 1.6 12.9 0.00 0.00 0.00 62 1013.1
20260507064705 7 302 3.2 12.9 0.00 0.00 0.00 62 1013.1
20260507064605 7 301 3.2 12.9 0.00 0.00 0.00 62 1013.1
20260507064526 7 301 3.2 12.9 0.00 0.00 0.00 62 1013.1
20260507064426 7 300 3.2 12.9 0.00 0.00 0.00 61 1013.1
20260507064305 7 298 3.2 16.1 0.00 0.00 0.00 61 1013.2
20260507064204 7 297 4.8 16.1 0.00 0.00 0.00 61 1013.2
20260507064104 7 299 4.8 16.1 0.00 0.00 0.00 61 1013.2
20260507064026 7 296 4.8 16.1 0.00 0.00 0.00 61 1013.2
20260507063905 7 294 4.8 16.1 0.00 0.00 0.00 61 1013.2
20260507063805 7 294 4.8 16.1 0.00 0.00 0.00 61 1013.2
20260507063704 7 292 4.8 16.1 0.00 0.00 0.00 61 1013.3
20260507063604 7 291 3.2 16.1 0.00 0.00 0.00 61 1013.3
20260507063505 7 289 3.2 16.1 0.00 0.00 0.00 61 1013.2
20260507063405 7 289 3.2 16.1 0.00 0.00 0.00 61 1013.2
20260507063305 7 284 3.2 12.9 0.00 0.00 0.00 61 1013.3
20260507063205 7 286 3.2 11.3 0.00 0.00 0.00 61 1013.3
20260507063105 7 278 1.6 11.3 0.00 0.00 0.00 62 1013.3
20260507063026 7 282 1.6 9.7 0.00 0.00 0.00 62 1013.3
20260507062904 7 289 1.6 9.7 0.00 0.00 0.00 62 1013.3
20260507062805 7 293 1.6 9.7 0.00 0.00 0.00 62 1013.3
20260507062705 7 297 1.6 9.7 0.00 0.00 0.00 62 1013.3
20260507062604 7 300 1.6 9.7 0.00 0.00 0.00 62 1013.3
20260507062505 7 303 1.6 9.7 0.00 0.00 0.00 62 1013.3
20260507062405 7 305 1.6 9.7 0.00 0.00 0.00 61 1013.3
20260507062306 7 307 1.6 9.7 0.00 0.00 0.00 61 1013.3
20260507062205 7 309 1.6 6.4 0.00 0.00 0.00 61 1013.2
20260507062105 7 308 3.2 6.4 0.00 0.00 0.00 61 1013.2
20260507062005 7 303 1.6 6.4 0.00 0.00 0.00 61 1013.2
20260507061905 7 302 3.2 6.4 0.00 0.00 0.00 62 1013.2
20260507061805 7 304 3.2 11.3 0.00 0.00 0.00 62 1013.2
20260507061705 7 304 3.2 11.3 0.00 0.00 0.00 62 1013.1
20260507061604 7 302 3.2 11.3 0.00 0.00 0.00 62 1013.1
20260507061505 7 300 3.2 11.3 0.00 0.00 0.00 62 1013.2
20260507061405 7 301 3.2 11.3 0.00 0.00 0.00 62 1013.1
20260507061304 7 303 3.2 11.3 0.00 0.00 0.00 62 1013.1
20260507061205 7 304 3.2 11.3 0.00 0.00 0.00 62 1013.1
20260507061104 7 303 3.2 11.3 0.00 0.00 0.00 62 1013.2
20260507061005 7 306 3.2 11.3 0.00 0.00 0.00 62 1013.2
20260507060904 7 304 1.6 11.3 0.00 0.00 0.00 61 1013.1
20260507060804 7 300 1.6 11.3 0.00 0.00 0.00 62 1013.1
20260507060705 7 302 1.6 11.3 0.00 0.00 0.00 62 1013.2
20260507060604 7 296 1.6 12.9 0.00 0.00 0.00 63 1013.2
20260507060505 7 296 1.6 12.9 0.00 0.00 0.00 63 1013.2
20260507060426 7 295 1.6 12.9 0.00 0.00 0.00 63 1013.2
20260507060305 7 295 3.2 12.9 0.00 0.00 0.00 63 1013.2
20260507060204 7 296 3.2 12.9 0.00 0.00 0.00 63 1013.2
20260507060126 7 297 3.2 12.9 0.00 0.00 0.00 63 1013.2
20260507060005 7 298 3.2 12.9 0.00 0.00 0.00 62 1013.2
20260507055905 7 297 3.2 12.9 0.00 0.00 0.00 62 1013.2
20260507055804 7 299 3.2 12.9 0.00 0.00 0.00 62 1013.2
20260507055704 7 296 3.2 12.9 0.00 0.00 0.00 62 1013.2
20260507055605 7 299 3.2 9.7 0.00 0.00 0.00 62 1013.2
20260507055504 7 298 3.2 9.7 0.00 0.00 0.00 62 1013.2
20260507055404 7 301 3.2 9.7 0.00 0.00 0.00 62 1013.3
20260507055306 7 301 3.2 9.7 0.00 0.00 0.00 62 1013.3
20260507055205 7 300 3.2 9.7 0.00 0.00 0.00 62 1013.3
20260507055126 7 302 3.2 9.7 0.00 0.00 0.00 62 1013.2
20260507055004 7 300 1.6 11.3 0.00 0.00 0.00 62 1013.2
20260507054905 7 302 1.6 11.3 0.00 0.00 0.00 63 1013.3
20260507054805 7 298 1.6 11.3 0.00 0.00 0.00 63 1013.2
20260507054705 7 301 1.6 11.3 0.00 0.00 0.00 63 1013.2
20260507054605 7 301 1.6 11.3 0.00 0.00 0.00 63 1013.3
20260507054505 7 301 1.6 11.3 0.00 0.00 0.00 63 1013.3
20260507054405 7 286 1.6 17.7 0.00 0.00 0.00 63 1013.3
20260507054305 7 281 1.6 17.7 0.00 0.00 0.00 62 1013.3
20260507054204 7 278 1.6 17.7 0.00 0.00 0.00 62 1013.3
20260507054105 7 272 1.6 17.7 0.00 0.00 0.00 62 1013.3
20260507054005 7 275 1.6 17.7 0.00 0.00 0.00 62 1013.3
20260507053904 7 284 1.6 17.7 0.00 0.00 0.00 62 1013.3
20260507053804 7 290 1.6 17.7 0.00 0.00 0.00 62 1013.3
20260507053704 7 286 1.6 17.7 0.00 0.00 0.00 62 1013.3
20260507053605 7 285 1.6 17.7 0.00 0.00 0.00 62 1013.4
20260507053505 7 289 1.6 17.7 0.00 0.00 0.00 62 1013.3
20260507053405 7 298 1.6 6.4 0.00 0.00 0.00 62 1013.3
20260507053304 7 295 1.6 17.7 0.00 0.00 0.00 62 1013.3
20260507053205 7 297 3.2 17.7 0.00 0.00 0.00 62 1013.3
20260507053104 7 295 3.2 17.7 0.00 0.00 0.00 62 1013.4
20260507053026 7 295 3.2 17.7 0.00 0.00 0.00 62 1013.4
20260507052904 7 291 3.2 17.7 0.00 0.00 0.00 62 1013.4
20260507052804 7 287 3.2 17.7 0.00 0.00 0.00 62 1013.4
20260507052705 7 288 4.8 17.7 0.00 0.00 0.00 62 1013.4
20260507052605 7 290 4.8 17.7 0.00 0.00 0.00 62 1013.4
20260507052505 7 290 4.8 17.7 0.00 0.00 0.00 62 1013.4
20260507052404 7 293 4.8 17.7 0.00 0.00 0.00 62 1013.4
20260507052306 7 293 4.8 16.1 0.00 0.00 0.00 61 1013.4
20260507052205 7 290 4.8 16.1 0.00 0.00 0.00 62 1013.4
20260507052104 7 289 4.8 12.9 0.00 0.00 0.00 61 1013.4
20260507052004 7 288 3.2 9.7 0.00 0.00 0.00 61 1013.4
20260507051904 7 290 3.2 9.7 0.00 0.00 0.00 61 1013.4
20260507051805 7 295 3.2 9.7 0.00 0.00 0.00 61 1013.4
20260507051705 7 293 3.2 9.7 0.00 0.00 0.00 61 1013.4
20260507051605 7 290 3.2 8.0 0.00 0.00 0.00 62 1013.4
20260507051504 7 290 3.2 8.0 0.00 0.00 0.00 62 1013.4
20260507051405 7 287 3.2 8.0 0.00 0.00 0.00 62 1013.4
20260507051304 7 292 3.2 8.0 0.00 0.00 0.00 62 1013.4
20260507051204 7 296 3.2 8.0 0.00 0.00 0.00 63 1013.4
20260507051104 7 299 1.6 8.0 0.00 0.00 0.00 63 1013.4
20260507051026 7 305 1.6 6.4 0.00 0.00 0.00 63 1013.4
20260507050904 7 300 3.2 6.4 0.00 0.00 0.00 63 1013.4
20260507050804 7 301 3.2 8.0 0.00 0.00 0.00 63 1013.4
20260507050704 7 300 3.2 8.0 0.00 0.00 0.00 62 1013.3
20260507050605 7 305 3.2 14.5 0.00 0.00 0.00 63 1013.3
20260507050505 7 303 3.2 14.5 0.00 0.00 0.00 63 1013.3
20260507050404 7 300 3.2 14.5 0.00 0.00 0.00 63 1013.3
20260507050304 7 300 3.2 14.5 0.00 0.00 0.00 62 1013.3
20260507050205 7 302 4.8 14.5 0.00 0.00 0.00 63 1013.3
20260507050105 7 300 4.8 14.5 0.00 0.00 0.00 63 1013.3
20260507050005 7 300 4.8 14.5 0.00 0.00 0.00 63 1013.3
20260507045904 7 299 4.8 14.5 0.00 0.00 0.00 62 1013.3
20260507045805 7 295 4.8 14.5 0.00 0.00 0.00 62 1013.3
20260507045726 7 294 4.8 14.5 0.00 0.00 0.00 63 1013.3
20260507045605 7 290 3.2 14.5 0.00 0.00 0.00 63 1013.3
20260507045504 7 289 3.2 14.5 0.00 0.00 0.00 63 1013.3
20260507045404 7 290 3.2 14.5 0.00 0.00 0.00 63 1013.3
20260507045306 7 290 4.8 14.5 0.00 0.00 0.00 63 1013.3
20260507045205 7 289 4.8 14.5 0.00 0.00 0.00 63 1013.3
20260507045104 7 288 4.8 19.3 0.00 0.00 0.00 63 1013.3
20260507045004 7 288 4.8 19.3 0.00 0.00 0.00 63 1013.3
20260507044904 7 286 4.8 19.3 0.00 0.00 0.00 63 1013.3
20260507044804 7 286 4.8 19.3 0.00 0.00 0.00 64 1013.3
20260507044725 7 287 4.8 19.3 0.00 0.00 0.00 64 1013.3
20260507044605 7 286 4.8 19.3 0.00 0.00 0.00 64 1013.2
20260507044505 7 287 4.8 19.3 0.00 0.00 0.00 64 1013.2
20260507044405 7 286 3.2 19.3 0.00 0.00 0.00 63 1013.3
20260507044304 7 285 3.2 19.3 0.00 0.00 0.00 64 1013.3
20260507044204 7 282 3.2 19.3 0.00 0.00 0.00 64 1013.2
20260507044125 7 280 3.2 19.3 0.00 0.00 0.00 65 1013.2
20260507044004 7 276 1.6 9.7 0.00 0.00 0.00 65 1013.2
20260507043904 7 280 1.6 12.9 0.00 0.00 0.00 66 1013.2
20260507043825 7 286 1.6 12.9 0.00 0.00 0.00 66 1013.2
20260507043725 7 281 1.6 12.9 0.00 0.00 0.00 67 1013.2
20260507043604 7 282 1.6 12.9 0.00 0.00 0.00 67 1013.2
20260507043504 7 275 1.6 12.9 0.00 0.00 0.00 68 1013.2
20260507043405 7 271 1.6 12.9 0.00 0.00 0.00 67 1013.2
20260507043305 7 272 3.2 12.9 0.00 0.00 0.00 68 1013.2
20260507043205 7 269 3.2 12.9 0.00 0.00 0.00 69 1013.2
20260507043104 7 275 3.2 12.9 0.00 0.00 0.00 68 1013.2
20260507043004 7 275 3.2 12.9 0.00 0.00 0.00 69 1013.2
20260507042925 7 275 3.2 11.3 0.00 0.00 0.00 69 1013.2
20260507042804 7 272 3.2 9.7 0.00 0.00 0.00 69 1013.3
20260507042725 7 272 3.2 9.7 0.00 0.00 0.00 69 1013.3
20260507042604 7 276 1.6 9.7 0.00 0.00 0.00 70 1013.3
20260507042505 7 279 1.6 9.7 0.00 0.00 0.00 70 1013.3
20260507042426 7 280 1.6 9.7 0.00 0.00 0.00 70 1013.3
20260507042325 7 282 1.6 9.7 0.00 0.00 0.00 70 1013.3
20260507042205 7 283 1.6 9.7 0.00 0.00 0.00 69 1013.3
20260507042125 7 271 1.6 6.4 0.00 0.00 0.00 70 1013.2
20260507042005 7 270 1.6 4.8 0.00 0.00 0.00 69 1013.2
20260507041904 7 268 1.6 4.8 0.00 0.00 0.00 69 1013.2
20260507041805 7 267 1.6 4.8 0.00 0.00 0.00 69 1013.2
20260507041705 7 0 0.0 4.8 0.00 0.00 0.00 69 1013.2
20260507041626 7 0 0.0 4.8 0.00 0.00 0.00 69 1013.2
20260507041504 7 271 1.6 4.8 0.00 0.00 0.00 69 1013.2
20260507041404 7 0 0.0 4.8 0.00 0.00 0.00 68 1013.2
20260507041304 7 0 0.0 4.8 0.00 0.00 0.00 68 1013.2
20260507041205 7 0 0.0 4.8 0.00 0.00 0.00 68 1013.2
20260507041105 7 0 0.0 4.8 0.00 0.00 0.00 68 1013.2
20260507041004 7 0 0.0 4.8 0.00 0.00 0.00 68 1013.2
20260507040905 7 0 0.0 4.8 0.00 0.00 0.00 68 1013.2
20260507040805 7 0 0.0 4.8 0.00 0.00 0.00 68 1013.2
20260507040725 7 0 0.0 4.8 0.00 0.00 0.00 67 1013.2
20260507040605 7 0 0.0 4.8 0.00 0.00 0.00 67 1013.2
20260507040504 7 0 0.0 4.8 0.00 0.00 0.00 67 1013.2
20260507040404 7 0 0.0 1.6 0.00 0.00 0.00 67 1013.2
20260507040304 7 0 0.0 1.6 0.00 0.00 0.00 67 1013.2
20260507040205 7 0 0.0 1.6 0.00 0.00 0.00 67 1013.2
20260507040104 7 0 0.0 1.6 0.00 0.00 0.00 67 1013.2
20260507040007 7 0 0.0 1.6 0.00 0.00 0.00 67 1013.2
20260507035904 7 0 0.0 1.6 0.00 0.00 0.00 67 1013.2
20260507035804 7 0 0.0 1.6 0.00 0.00 0.00 67 1013.1
20260507035725 7 0 0.0 1.6 0.00 0.00 0.00 67 1013.1
20260507035605 7 0 0.0 3.2 0.00 0.00 0.00 67 1013.2
20260507035505 7 0 0.0 3.2 0.00 0.00 0.00 67 1013.2
20260507035425 7 0 0.0 3.2 0.00 0.00 0.00 66 1013.2
20260507035306 7 0 0.0 3.2 0.00 0.00 0.00 66 1013.2
20260507035204 7 0 0.0 3.2 0.00 0.00 0.00 66 1013.2
20260507035104 7 0 0.0 3.2 0.00 0.00 0.00 67 1013.1
20260507035004 7 0 0.0 3.2 0.00 0.00 0.00 66 1013.2
20260507034904 7 0 0.0 3.2 0.00 0.00 0.00 66 1013.2
20260507034804 7 0 0.0 3.2 0.00 0.00 0.00 66 1013.1
20260507034725 7 0 0.0 3.2 0.00 0.00 0.00 66 1013.1
20260507034605 7 0 0.0 1.6 0.00 0.00 0.00 66 1013.1
20260507034505 7 0 0.0 1.6 0.00 0.00 0.00 66 1013.1
20260507034404 7 0 0.0 1.6 0.00 0.00 0.00 66 1013.1
20260507034304 7 0 0.0 1.6 0.00 0.00 0.00 67 1013.2
20260507034204 7 0 0.0 1.6 0.00 0.00 0.00 67 1013.2
20260507034104 7 0 0.0 1.6 0.00 0.00 0.00 67 1013.1
20260507034005 7 0 0.0 1.6 0.00 0.00 0.00 67 1013.2
20260507033904 7 0 0.0 1.6 0.00 0.00 0.00 67 1013.2
20260507033805 7 0 0.0 1.6 0.00 0.00 0.00 67 1013.2
20260507033725 7 0 0.0 1.6 0.00 0.00 0.00 67 1013.2
20260507033625 7 0 0.0 0.0 0.00 0.00 0.00 67 1013.2
20260507033505 7 0 0.0 0.0 0.00 0.00 0.00 67 1013.1
20260507033404 7 0 0.0 0.0 0.00 0.00 0.00 66 1013.1
20260507033304 7 0 0.0 0.0 0.00 0.00 0.00 66 1013.2
20260507033204 7 0 0.0 1.6 0.00 0.00 0.00 66 1013.2
20260507033104 7 0 0.0 1.6 0.00 0.00 0.00 66 1013.2
20260507033005 7 0 0.0 1.6 0.00 0.00 0.00 66 1013.1
20260507032904 7 0 0.0 1.6 0.00 0.00 0.00 66 1013.1
20260507032825 7 0 0.0 1.6 0.00 0.00 0.00 66 1013.1
20260507032704 7 0 0.0 1.6 0.00 0.00 0.00 66 1013.1
20260507032604 7 0 0.0 1.6 0.00 0.00 0.00 66 1013.1
20260507032504 7 0 0.0 1.6 0.00 0.00 0.00 66 1013.1
20260507032405 7 0 0.0 1.6 0.00 0.00 0.00 66 1013.1
20260507032306 7 0 0.0 1.6 0.00 0.00 0.00 66 1013.2
20260507032204 7 0 0.0 1.6 0.00 0.00 0.00 66 1013.1
20260507032104 7 0 0.0 1.6 0.00 0.00 0.00 66 1013.1
20260507032004 7 0 0.0 1.6 0.00 0.00 0.00 66 1013.2
20260507031904 7 0 0.0 1.6 0.00 0.00 0.00 66 1013.2
20260507031804 7 0 0.0 1.6 0.00 0.00 0.00 66 1013.2
20260507031704 7 0 0.0 1.6 0.00 0.00 0.00 66 1013.2
20260507031604 7 0 0.0 1.6 0.00 0.00 0.00 66 1013.2
20260507031505 7 0 0.0 1.6 0.00 0.00 0.00 65 1013.2
20260507031404 7 0 0.0 0.0 0.00 0.00 0.00 65 1013.2
20260507031304 7 0 0.0 0.0 0.00 0.00 0.00 65 1013.2
20260507031225 7 0 0.0 0.0 0.00 0.00 0.00 65 1013.2
20260507031104 7 0 0.0 0.0 0.00 0.00 0.00 65 1013.2
20260507031004 7 0 0.0 1.6 0.00 0.00 0.00 65 1013.3
20260507030905 7 0 0.0 1.6 0.00 0.00 0.00 65 1013.2
20260507030804 7 0 0.0 1.6 0.00 0.00 0.00 65 1013.2
20260507030704 7 0 0.0 1.6 0.00 0.00 0.00 65 1013.2
20260507030604 7 0 0.0 1.6 0.00 0.00 0.00 65 1013.2
20260507030504 7 0 0.0 1.6 0.00 0.00 0.00 65 1013.2
20260507030425 7 0 0.0 1.6 0.00 0.00 0.00 65 1013.2
20260507030304 7 0 0.0 1.6 0.00 0.00 0.00 64 1013.2
20260507030204 7 0 0.0 1.6 0.00 0.00 0.00 64 1013.2
20260507030125 7 0 0.0 1.6 0.00 0.00 0.00 65 1013.2
20260507030025 7 0 0.0 1.6 0.00 0.00 0.00 65 1013.2
20260507025905 7 0 0.0 1.6 0.00 0.00 0.00 64 1013.2
20260507025804 7 0 0.0 1.6 0.00 0.00 0.00 64 1013.2
20260507025704 7 0 0.0 1.6 0.00 0.00 0.00 64 1013.2
20260507025604 7 0 0.0 0.0 0.00 0.00 0.00 64 1013.2
20260507025504 7 0 0.0 0.0 0.00 0.00 0.00 64 1013.2
20260507025404 7 0 0.0 0.0 0.00 0.00 0.00 64 1013.2
20260507025325 7 0 0.0 0.0 0.00 0.00 0.00 63 1013.2
20260507025225 7 0 0.0 0.0 0.00 0.00 0.00 63 1013.2
20260507025104 7 0 0.0 0.0 0.00 0.00 0.00 63 1013.2
20260507025005 7 0 0.0 0.0 0.00 0.00 0.00 63 1013.2
20260507024904 7 0 0.0 0.0 0.00 0.00 0.00 63 1013.2
20260507024804 7 0 0.0 0.0 0.00 0.00 0.00 63 1013.2
20260507024725 7 0 0.0 0.0 0.00 0.00 0.00 63 1013.2
20260507024625 7 0 0.0 0.0 0.00 0.00 0.00 63 1013.2
20260507024525 7 0 0.0 0.0 0.00 0.00 0.00 62 1013.2
20260507024404 7 0 0.0 0.0 0.00 0.00 0.00 62 1013.2
20260507024304 7 0 0.0 0.0 0.00 0.00 0.00 62 1013.2
20260507024204 7 0 0.0 0.0 0.00 0.00 0.00 62 1013.2
20260507024125 7 0 0.0 0.0 0.00 0.00 0.00 62 1013.2
20260507024004 7 0 0.0 0.0 0.00 0.00 0.00 61 1013.2
20260507023925 7 0 0.0 0.0 0.00 0.00 0.00 61 1013.2
20260507023804 7 0 0.0 0.0 0.00 0.00 0.00 61 1013.2
20260507023704 7 0 0.0 1.6 0.00 0.00 0.00 61 1013.2
20260507023625 7 0 0.0 3.2 0.00 0.00 0.00 61 1013.2
20260507023504 7 0 0.0 3.2 0.00 0.00 0.00 61 1013.2
20260507023404 7 0 0.0 3.2 0.00 0.00 0.00 61 1013.2
20260507023304 7 0 0.0 3.2 0.00 0.00 0.00 61 1013.2
20260507023226 7 0 0.0 3.2 0.00 0.00 0.00 60 1013.2
20260507023104 7 0 0.0 3.2 0.00 0.00 0.00 60 1013.2
20260507023004 7 0 0.0 3.2 0.00 0.00 0.00 60 1013.2
20260507022904 7 0 0.0 3.2 0.00 0.00 0.00 60 1013.2
20260507022804 7 0 0.0 3.2 0.00 0.00 0.00 60 1013.2
20260507022704 7 0 0.0 3.2 0.00 0.00 0.00 60 1013.2
20260507022604 7 0 0.0 1.6 0.00 0.00 0.00 59 1013.1
20260507022504 7 0 0.0 3.2 0.00 0.00 0.00 59 1013.2
20260507022404 7 0 0.0 4.8 0.00 0.00 0.00 59 1013.2
20260507022306 8 0 0.0 4.8 0.00 0.00 0.00 59 1013.2
20260507022204 8 0 0.0 4.8 0.00 0.00 0.00 59 1013.2
20260507022104 8 0 0.0 4.8 0.00 0.00 0.00 59 1013.1
20260507022004 8 0 0.0 4.8 0.00 0.00 0.00 59 1013.1
20260507021904 8 0 0.0 4.8 0.00 0.00 0.00 58 1013.1
20260507021804 8 0 0.0 4.8 0.00 0.00 0.00 58 1013.1
20260507021704 8 251 1.6 4.8 0.00 0.00 0.00 59 1013.1
20260507021604 8 249 1.6 4.8 0.00 0.00 0.00 58 1013.1
20260507021526 8 249 1.6 4.8 0.00 0.00 0.00 58 1013.1
20260507021425 8 0 0.0 4.8 0.00 0.00 0.00 58 1013.1
20260507021325 8 247 1.6 4.8 0.00 0.00 0.00 58 1013.0
20260507021204 8 247 1.6 6.4 0.00 0.00 0.00 58 1013.1
20260507021104 8 246 1.6 6.4 0.00 0.00 0.00 58 1013.1
20260507021004 8 246 1.6 6.4 0.00 0.00 0.00 58 1013.1
20260507020904 8 246 1.6 6.4 0.00 0.00 0.00 58 1013.1
20260507020804 8 250 1.6 6.4 0.00 0.00 0.00 58 1013.1
20260507020704 8 254 1.6 6.4 0.00 0.00 0.00 58 1013.1
20260507020604 8 256 1.6 6.4 0.00 0.00 0.00 58 1013.1
20260507020525 8 257 1.6 6.4 0.00 0.00 0.00 58 1013.1
20260507020404 8 0 0.0 6.4 0.00 0.00 0.00 57 1013.1
20260507020304 8 0 0.0 4.8 0.00 0.00 0.00 58 1013.0
20260507020225 8 0 0.0 4.8 0.00 0.00 0.00 58 1013.0
20260507020104 8 0 0.0 4.8 0.00 0.00 0.00 57 1013.1
20260507020005 8 0 0.0 4.8 0.00 0.00 0.00 57 1013.0
20260507015904 8 0 0.0 4.8 0.00 0.00 0.00 57 1013.1
20260507015804 8 0 0.0 4.8 0.00 0.00 0.00 57 1013.1
20260507015704 8 0 0.0 4.8 0.00 0.00 0.00 57 1013.0
20260507015604 8 0 0.0 4.8 0.00 0.00 0.00 57 1013.0
20260507015505 8 0 0.0 4.8 0.00 0.00 0.00 57 1013.1
20260507015404 8 0 0.0 4.8 0.00 0.00 0.00 57 1013.1
20260507015306 8 0 0.0 4.8 0.00 0.00 0.00 57 1013.1
20260507015204 8 0 0.0 3.2 0.00 0.00 0.00 57 1013.1
20260507015104 8 0 0.0 3.2 0.00 0.00 0.00 57 1013.1
20260507015004 8 0 0.0 3.2 0.00 0.00 0.00 57 1013.1
20260507014904 8 0 0.0 3.2 0.00 0.00 0.00 56 1013.0
20260507014804 8 0 0.0 3.2 0.00 0.00 0.00 56 1013.0
20260507014704 8 0 0.0 3.2 0.00 0.00 0.00 56 1013.0
20260507014604 8 0 0.0 3.2 0.00 0.00 0.00 56 1013.0
20260507014504 8 0 0.0 3.2 0.00 0.00 0.00 56 1013.0
20260507014404 8 0 0.0 3.2 0.00 0.00 0.00 56 1013.0
20260507014304 8 0 0.0 3.2 0.00 0.00 0.00 56 1013.0
20260507014204 8 0 0.0 3.2 0.00 0.00 0.00 56 1013.0
20260507014104 8 0 0.0 3.2 0.00 0.00 0.00 56 1013.0
20260507014004 8 0 0.0 3.2 0.00 0.00 0.00 56 1013.0
20260507013904 8 0 0.0 3.2 0.00 0.00 0.00 56 1012.9
20260507013804 8 0 0.0 3.2 0.00 0.00 0.00 56 1012.9
20260507013704 8 0 0.0 3.2 0.00 0.00 0.00 56 1012.9
20260507013625 8 0 0.0 3.2 0.00 0.00 0.00 56 1012.9
20260507013504 8 0 0.0 3.2 0.00 0.00 0.00 56 1012.9
20260507013404 8 0 0.0 3.2 0.00 0.00 0.00 56 1012.9
20260507013304 8 0 0.0 4.8 0.00 0.00 0.00 56 1012.9
20260507013204 8 260 1.6 4.8 0.00 0.00 0.00 55 1013.0
20260507013104 8 256 1.6 4.8 0.00 0.00 0.00 55 1013.0
20260507013004 8 256 1.6 4.8 0.00 0.00 0.00 55 1013.0
20260507012904 8 0 0.0 4.8 0.00 0.00 0.00 55 1013.0
20260507012805 8 0 0.0 4.8 0.00 0.00 0.00 55 1013.0
20260507012704 8 0 0.0 4.8 0.00 0.00 0.00 55 1013.0
20260507012604 8 0 0.0 4.8 0.00 0.00 0.00 55 1013.0
20260507012504 8 0 0.0 4.8 0.00 0.00 0.00 55 1013.0
20260507012404 8 0 0.0 4.8 0.00 0.00 0.00 55 1013.0
20260507012325 8 0 0.0 4.8 0.00 0.00 0.00 55 1013.0
20260507012204 8 0 0.0 3.2 0.00 0.00 0.00 55 1013.0
20260507012104 8 0 0.0 1.6 0.00 0.00 0.00 55 1013.0
20260507012004 8 0 0.0 1.6 0.00 0.00 0.00 55 1013.0
20260507011904 8 0 0.0 1.6 0.00 0.00 0.00 55 1012.9
20260507011804 8 0 0.0 1.6 0.00 0.00 0.00 55 1013.0
20260507011704 8 0 0.0 1.6 0.00 0.00 0.00 54 1013.0
20260507011625 8 0 0.0 1.6 0.00 0.00 0.00 54 1013.0
20260507011504 8 0 0.0 1.6 0.00 0.00 0.00 54 1013.0
20260507011404 8 0 0.0 1.6 0.00 0.00 0.00 54 1012.9
20260507011325 8 0 0.0 1.6 0.00 0.00 0.00 54 1012.9
20260507011204 8 0 0.0 1.6 0.00 0.00 0.00 53 1012.9
20260507011125 8 0 0.0 3.2 0.00 0.00 0.00 53 1012.9
20260507011004 8 0 0.0 3.2 0.00 0.00 0.00 53 1012.9
20260507010904 8 0 0.0 3.2 0.00 0.00 0.00 53 1012.9
20260507010804 8 0 0.0 3.2 0.00 0.00 0.00 53 1012.9
20260507010704 8 0 0.0 3.2 0.00 0.00 0.00 53 1012.9
20260507010625 8 0 0.0 3.2 0.00 0.00 0.00 53 1012.9
20260507010504 8 0 0.0 3.2 0.00 0.00 0.00 52 1012.9
20260507010404 8 0 0.0 3.2 0.00 0.00 0.00 52 1012.9
20260507010304 8 0 0.0 3.2 0.00 0.00 0.00 52 1012.9
20260507010204 8 0 0.0 3.2 0.00 0.00 0.00 52 1012.9
20260507010125 8 0 0.0 1.6 0.00 0.00 0.00 52 1012.9
20260507010004 8 0 0.0 3.2 0.00 0.00 0.00 52 1012.8
20260507005904 8 0 0.0 3.2 0.00 0.00 0.00 52 1012.8
20260507005804 8 0 0.0 3.2 0.00 0.00 0.00 52 1012.8
20260507005704 8 0 0.0 3.2 0.00 0.00 0.00 52 1012.8
20260507005625 8 0 0.0 3.2 0.00 0.00 0.00 51 1012.7
20260507005504 8 0 0.0 3.2 0.00 0.00 0.00 51 1012.7
20260507005404 8 0 0.0 3.2 0.00 0.00 0.00 52 1012.7
20260507005306 8 0 0.0 3.2 0.00 0.00 0.00 51 1012.7
20260507005204 8 0 0.0 3.2 0.00 0.00 0.00 51 1012.7
20260507005104 8 0 0.0 6.4 0.00 0.00 0.00 51 1012.7
20260507005004 8 248 1.6 6.4 0.00 0.00 0.00 51 1012.7
20260507004904 8 251 1.6 6.4 0.00 0.00 0.00 51 1012.7
20260507004825 8 251 1.6 6.4 0.00 0.00 0.00 51 1012.7
20260507004704 8 251 1.6 6.4 0.00 0.00 0.00 51 1012.7
20260507004604 8 250 1.6 6.4 0.00 0.00 0.00 51 1012.7
20260507004504 8 248 1.6 6.4 0.00 0.00 0.00 51 1012.7
20260507004404 8 248 1.6 6.4 0.00 0.00 0.00 51 1012.7
20260507004304 8 250 1.6 6.4 0.00 0.00 0.00 50 1012.7
20260507004204 8 0 0.0 6.4 0.00 0.00 0.00 50 1012.6
20260507004125 8 0 0.0 6.4 0.00 0.00 0.00 50 1012.6
20260507004005 8 0 0.0 4.8 0.00 0.00 0.00 50 1012.7
20260507003904 8 0 0.0 4.8 0.00 0.00 0.00 50 1012.7
20260507003804 8 241 1.6 6.4 0.00 0.00 0.00 50 1012.6
20260507003704 8 240 1.6 8.0 0.00 0.00 0.00 50 1012.6
20260507003625 8 241 1.6 8.0 0.00 0.00 0.00 50 1012.6
20260507003504 8 237 1.6 8.0 0.00 0.00 0.00 50 1012.6
20260507003404 8 236 1.6 8.0 0.00 0.00 0.00 50 1012.6
20260507003304 8 234 1.6 8.0 0.00 0.00 0.00 50 1012.6
20260507003204 8 233 1.6 8.0 0.00 0.00 0.00 50 1012.6
20260507003104 8 237 1.6 8.0 0.00 0.00 0.00 50 1012.6
20260507003004 8 239 1.6 8.0 0.00 0.00 0.00 50 1012.6
20260507002904 8 242 1.6 8.0 0.00 0.00 0.00 50 1012.6
20260507002804 8 243 1.6 8.0 0.00 0.00 0.00 50 1012.6
20260507002704 8 246 1.6 6.4 0.00 0.00 0.00 49 1012.6
20260507002604 8 246 1.6 6.4 0.00 0.00 0.00 50 1012.6
20260507002504 8 249 1.6 6.4 0.00 0.00 0.00 50 1012.6
20260507002404 8 249 1.6 6.4 0.00 0.00 0.00 50 1012.5
20260507002306 8 252 3.2 8.0 0.00 0.00 0.00 49 1012.5
20260507002204 8 246 3.2 8.0 0.00 0.00 0.00 49 1012.5
20260507002104 8 245 3.2 8.0 0.00 0.00 0.00 49 1012.5
20260507002004 8 244 3.2 8.0 0.00 0.00 0.00 49 1012.5
20260507001904 8 243 3.2 8.0 0.00 0.00 0.00 49 1012.5
20260507001804 8 245 3.2 8.0 0.00 0.00 0.00 49 1012.5
20260507001704 8 243 1.6 8.0 0.00 0.00 0.00 49 1012.5
20260507001604 8 244 3.2 8.0 0.00 0.00 0.00 49 1012.4
20260507001504 8 245 1.6 8.0 0.00 0.00 0.00 49 1012.4
20260507001404 8 245 1.6 8.0 0.00 0.00 0.00 48 1012.4
20260507001304 8 239 1.6 8.0 0.00 0.00 0.00 48 1012.4
20260507001225 8 239 1.6 8.0 0.00 0.00 0.00 48 1012.5
20260507001104 8 245 1.6 8.0 0.00 0.00 0.00 49 1012.5
20260507001005 8 244 1.6 8.0 0.00 0.00 0.00 48 1012.5
20260507000904 8 244 1.6 8.0 0.00 0.00 0.00 48 1012.4
20260507000825 8 243 1.6 6.4 0.00 0.00 0.00 48 1012.4
20260507000704 9 230 1.6 4.8 0.00 0.00 0.00 48 1012.4
20260507000625 9 233 1.6 4.8 0.00 0.00 0.00 48 1012.4
20260507000504 9 237 1.6 9.7 0.00 0.00 0.00 48 1012.4
20260507000405 9 236 1.6 9.7 0.00 0.00 0.00 48 1012.4
20260507000325 9 237 1.6 9.7 0.00 0.00 0.00 48 1012.4
20260507000205 9 238 1.6 9.7 0.00 0.00 0.00 47 1012.4
20260507000025 9 226 1.6 9.7 0.00 0.00 0.00 47 1012.4
20260506235904 9 227 1.6 9.7 0.00 0.00 0.00 47 1012.3
20260506235804 9 230 3.2 9.7 0.00 0.00 0.00 47 1012.4
20260506235704 9 233 1.6 9.7 0.00 0.00 0.00 47 1012.4
20260506235604 9 230 1.6 9.7 0.00 0.00 0.00 47 1012.4
20260506235504 9 222 1.6 8.0 0.00 0.00 0.00 47 1012.4
20260506235404 9 219 1.6 8.0 0.00 0.00 0.00 47 1012.4
20260506235306 9 220 1.6 8.0 0.00 0.00 0.00 46 1012.4
20260506235204 9 214 1.6 8.0 0.00 0.00 0.00 46 1012.4
20260506235104 9 218 1.6 8.0 0.00 0.00 0.00 47 1012.5
20260506235004 9 231 3.2 11.3 0.00 0.00 0.00 46 1012.5
20260506234904 9 233 1.6 11.3 0.00 0.00 0.00 46 1012.5
20260506234805 9 231 1.6 11.3 0.00 0.00 0.00 47 1012.4
20260506234704 9 237 3.2 11.3 0.00 0.00 0.00 47 1012.4
20260506234604 9 243 3.2 11.3 0.00 0.00 0.00 47 1012.5
20260506234504 9 245 3.2 11.3 0.00 0.00 0.00 47 1012.5
20260506234425 9 246 3.2 11.3 0.00 0.00 0.00 47 1012.4
20260506234325 9 249 4.8 11.3 0.00 0.00 0.00 46 1012.4
20260506234204 9 254 3.2 11.3 0.00 0.00 0.00 47 1012.4
20260506234104 9 254 3.2 11.3 0.00 0.00 0.00 47 1012.5
20260506234004 9 256 4.8 11.3 0.00 0.00 0.00 47 1012.5
20260506233904 9 257 3.2 11.3 0.00 0.00 0.00 47 1012.5
20260506233804 9 255 4.8 11.3 0.00 0.00 0.00 46 1012.5
20260506233725 9 254 4.8 11.3 0.00 0.00 0.00 46 1012.5
20260506233604 9 254 4.8 11.3 0.00 0.00 0.00 46 1012.5
20260506233525 9 256 4.8 11.3 0.00 0.00 0.00 46 1012.5
20260506233425 9 257 4.8 11.3 0.00 0.00 0.00 46 1012.5
20260506233304 9 256 4.8 11.3 0.00 0.00 0.00 46 1012.5
20260506233204 9 255 4.8 11.3 0.00 0.00 0.00 47 1012.5
20260506233104 9 254 4.8 11.3 0.00 0.00 0.00 46 1012.5
20260506233004 9 253 4.8 11.3 0.00 0.00 0.00 47 1012.5
20260506232904 9 254 4.8 11.3 0.00 0.00 0.00 47 1012.5
20260506232804 9 255 3.2 11.3 0.00 0.00 0.00 46 1012.5
20260506232703 9 253 3.2 11.3 0.00 0.00 0.00 46 1012.5
20260506232604 9 250 3.2 11.3 0.00 0.00 0.00 46 1012.4
20260506232504 9 246 3.2 11.3 0.00 0.00 0.00 46 1012.4
20260506232404 9 245 3.2 11.3 0.00 0.00 0.00 46 1012.4
20260506232306 9 241 3.2 11.3 0.00 0.00 0.00 46 1012.4
20260506232204 9 239 3.2 9.7 0.00 0.00 0.00 47 1012.5
20260506232125 9 230 3.2 9.7 0.00 0.00 0.00 47 1012.5
20260506232004 9 228 3.2 9.7 0.00 0.00 0.00 46 1012.4
20260506231905 9 225 3.2 11.3 0.00 0.00 0.00 46 1012.4
20260506231804 9 225 3.2 11.3 0.00 0.00 0.00 46 1012.4
20260506231703 9 218 3.2 11.3 0.00 0.00 0.00 46 1012.5
20260506231625 9 217 3.2 11.3 0.00 0.00 0.00 45 1012.5
20260506231504 10 218 3.2 11.3 0.00 0.00 0.00 45 1012.5
20260506231404 10 221 3.2 11.3 0.00 0.00 0.00 45 1012.5
20260506231304 10 222 3.2 11.3 0.00 0.00 0.00 45 1012.4
20260506231203 10 224 3.2 11.3 0.00 0.00 0.00 45 1012.4
20260506231104 10 234 3.2 11.3 0.00 0.00 0.00 45 1012.4
20260506231025 10 238 3.2 12.9 0.00 0.00 0.00 45 1012.4
20260506230904 10 235 3.2 12.9 0.00 0.00 0.00 45 1012.4
20260506230804 10 234 3.2 12.9 0.00 0.00 0.00 45 1012.4
20260506230704 10 239 3.2 12.9 0.00 0.00 0.00 46 1012.4
20260506230604 10 238 3.2 12.9 0.00 0.00 0.00 46 1012.4
20260506230504 10 239 3.2 12.9 0.00 0.00 0.00 45 1012.5
20260506230403 10 237 3.2 12.9 0.00 0.00 0.00 46 1012.4
20260506230304 10 237 3.2 12.9 0.00 0.00 0.00 45 1012.4
20260506230225 10 236 3.2 12.9 0.00 0.00 0.00 45 1012.4
20260506230104 10 235 3.2 12.9 0.00 0.00 0.00 46 1012.4
20260506230004 10 232 3.2 9.7 0.00 0.00 0.00 46 1012.4
20260506225904 10 236 3.2 9.7 0.00 0.00 0.00 46 1012.5
20260506225804 10 237 3.2 9.7 0.00 0.00 0.00 46 1012.5
20260506225725 10 241 3.2 9.7 0.00 0.00 0.00 46 1012.4
20260506225604 10 244 3.2 9.7 0.00 0.00 0.00 45 1012.4
20260506225504 10 241 3.2 9.7 0.00 0.00 0.00 45 1012.4
20260506225404 10 235 3.2 9.7 0.00 0.00 0.00 46 1012.4
20260506225305 10 229 3.2 8.0 0.00 0.00 0.00 46 1012.4
20260506225225 10 233 3.2 11.3 0.00 0.00 0.00 46 1012.4
20260506225104 10 222 3.2 11.3 0.00 0.00 0.00 46 1012.4
20260506225004 10 214 3.2 11.3 0.00 0.00 0.00 46 1012.4
20260506224904 10 216 3.2 11.3 0.00 0.00 0.00 46 1012.4
20260506224804 10 214 3.2 11.3 0.00 0.00 0.00 45 1012.4
20260506224703 10 215 3.2 11.3 0.00 0.00 0.00 46 1012.4
20260506224604 10 215 3.2 11.3 0.00 0.00 0.00 45 1012.4
20260506224524 10 212 3.2 11.3 0.00 0.00 0.00 45 1012.4
20260506224403 10 222 3.2 14.5 0.00 0.00 0.00 45 1012.4
20260506224325 10 231 3.2 14.5 0.00 0.00 0.00 45 1012.4
20260506224204 10 230 3.2 14.5 0.00 0.00 0.00 45 1012.5
20260506224104 10 230 3.2 14.5 0.00 0.00 0.00 45 1012.4
20260506224003 10 234 3.2 14.5 0.00 0.00 0.00 46 1012.4
20260506223903 10 236 4.8 14.5 0.00 0.00 0.00 46 1012.4
20260506223805 10 229 4.8 14.5 0.00 0.00 0.00 45 1012.4
20260506223704 10 223 4.8 14.5 0.00 0.00 0.00 45 1012.4
20260506223604 10 220 4.8 14.5 0.00 0.00 0.00 45 1012.4
20260506223503 10 215 4.8 14.5 0.00 0.00 0.00 46 1012.4
20260506223404 10 215 4.8 14.5 0.00 0.00 0.00 45 1012.4
20260506223325 10 212 4.8 14.5 0.00 0.00 0.00 45 1012.4
20260506223204 10 207 4.8 14.5 0.00 0.00 0.00 45 1012.4
20260506223103 10 205 4.8 14.5 0.00 0.00 0.00 45 1012.4
20260506223003 10 208 6.4 14.5 0.00 0.00 0.00 44 1012.4
20260506222904 10 208 4.8 14.5 0.00 0.00 0.00 44 1012.5
20260506222804 10 213 4.8 12.9 0.00 0.00 0.00 44 1012.4
20260506222704 10 216 4.8 12.9 0.00 0.00 0.00 44 1012.4
20260506222604 10 219 4.8 12.9 0.00 0.00 0.00 44 1012.5
20260506222503 10 216 6.4 14.5 0.00 0.00 0.00 44 1012.5
20260506222425 10 213 6.4 14.5 0.00 0.00 0.00 44 1012.4
20260506222306 10 213 4.8 14.5 0.00 0.00 0.00 45 1012.4
20260506222204 10 214 4.8 14.5 0.00 0.00 0.00 45 1012.4
20260506222103 10 216 4.8 14.5 0.00 0.00 0.00 45 1012.4
20260506222003 10 214 4.8 14.5 0.00 0.00 0.00 44 1012.4
20260506221904 10 213 4.8 14.5 0.00 0.00 0.00 44 1012.4
20260506221804 10 213 3.2 14.5 0.00 0.00 0.00 44 1012.5
20260506221703 10 215 3.2 14.5 0.00 0.00 0.00 44 1012.5
20260506221624 10 211 3.2 14.5 0.00 0.00 0.00 44 1012.5
20260506221525 10 218 3.2 14.5 0.00 0.00 0.00 44 1012.5
20260506221404 10 229 3.2 9.7 0.00 0.00 0.00 44 1012.5
20260506221304 10 236 3.2 8.0 0.00 0.00 0.00 44 1012.5
20260506221203 10 241 3.2 9.7 0.00 0.00 0.00 44 1012.5
20260506221104 10 245 3.2 11.3 0.00 0.00 0.00 44 1012.4
20260506221003 10 245 4.8 11.3 0.00 0.00 0.00 44 1012.4
20260506220903 10 247 4.8 12.9 0.00 0.00 0.00 44 1012.4
20260506220824 10 249 4.8 12.9 0.00 0.00 0.00 44 1012.4
20260506220725 10 250 4.8 12.9 0.00 0.00 0.00 44 1012.4
20260506220625 10 252 4.8 16.1 0.00 0.00 0.00 44 1012.4
20260506220504 10 249 6.4 16.1 0.00 0.00 0.00 44 1012.5
20260506220424 10 249 6.4 16.1 0.00 0.00 0.00 43 1012.5
20260506220324 10 246 6.4 16.1 0.00 0.00 0.00 43 1012.4
20260506220204 10 247 8.0 16.1 0.00 0.00 0.00 43 1012.4
20260506220104 10 247 8.0 17.7 0.00 0.00 0.00 43 1012.4
20260506220004 10 248 8.0 17.7 0.00 0.00 0.00 43 1012.5
20260506215903 10 247 8.0 17.7 0.00 0.00 0.00 43 1012.5
20260506215825 10 244 8.0 17.7 0.00 0.00 0.00 43 1012.5
20260506215703 10 243 6.4 17.7 0.00 0.00 0.00 43 1012.4
20260506215603 10 239 6.4 17.7 0.00 0.00 0.00 43 1012.4
20260506215503 10 241 6.4 17.7 0.00 0.00 0.00 43 1012.4
20260506215424 10 240 6.4 17.7 0.00 0.00 0.00 43 1012.4
20260506215306 11 239 4.8 17.7 0.00 0.00 0.00 43 1012.4
20260506215204 11 235 4.8 17.7 0.00 0.00 0.00 43 1012.4
20260506215103 11 233 4.8 16.1 0.00 0.00 0.00 42 1012.4
20260506215004 11 232 4.8 11.3 0.00 0.00 0.00 42 1012.5
20260506214903 11 234 4.8 12.9 0.00 0.00 0.00 42 1012.5
20260506214804 11 238 4.8 12.9 0.00 0.00 0.00 42 1012.4
20260506214704 11 240 4.8 12.9 0.00 0.00 0.00 43 1012.4
20260506214604 11 244 6.4 12.9 0.00 0.00 0.00 43 1012.4
20260506214503 11 246 6.4 14.5 0.00 0.00 0.00 43 1012.4
20260506214404 11 251 6.4 14.5 0.00 0.00 0.00 43 1012.4
20260506214304 11 254 8.0 14.5 0.00 0.00 0.00 43 1012.4
20260506214204 11 255 8.0 16.1 0.00 0.00 0.00 44 1012.3
20260506214104 11 257 8.0 16.1 0.00 0.00 0.00 43 1012.3
20260506214004 11 257 8.0 16.1 0.00 0.00 0.00 43 1012.3
20260506213904 11 256 8.0 16.1 0.00 0.00 0.00 42 1012.3
20260506213804 11 254 8.0 16.1 0.00 0.00 0.00 42 1012.3
20260506213703 11 254 8.0 16.1 0.00 0.00 0.00 42 1012.4
20260506213603 11 254 6.4 16.1 0.00 0.00 0.00 43 1012.4
20260506213503 11 254 8.0 16.1 0.00 0.00 0.00 42 1012.4
20260506213404 11 251 8.0 16.1 0.00 0.00 0.00 42 1012.4
20260506213304 11 251 8.0 17.7 0.00 0.00 0.00 43 1012.4
20260506213203 11 251 8.0 17.7 0.00 0.00 0.00 43 1012.3
20260506213104 11 249 8.0 17.7 0.00 0.00 0.00 42 1012.3
20260506213004 11 250 8.0 17.7 0.00 0.00 0.00 42 1012.3
20260506212904 11 253 8.0 17.7 0.00 0.00 0.00 42 1012.3
20260506212803 11 255 8.0 17.7 0.00 0.00 0.00 42 1012.3
20260506212725 11 255 8.0 17.7 0.00 0.00 0.00 42 1012.3
20260506212625 11 253 8.0 17.7 0.00 0.00 0.00 43 1012.3
20260506212504 11 252 8.0 17.7 0.00 0.00 0.00 42 1012.3
20260506212403 11 252 8.0 17.7 0.00 0.00 0.00 42 1012.4
20260506212306 11 251 8.0 17.7 0.00 0.00 0.00 42 1012.4
20260506212204 11 251 8.0 17.7 0.00 0.00 0.00 42 1012.4
20260506212104 11 250 6.4 17.7 0.00 0.00 0.00 42 1012.3
20260506212003 11 248 6.4 17.7 0.00 0.00 0.00 42 1012.3
20260506211903 11 242 6.4 17.7 0.00 0.00 0.00 42 1012.4
20260506211803 11 240 6.4 17.7 0.00 0.00 0.00 41 1012.4
20260506211703 11 241 6.4 17.7 0.00 0.00 0.00 41 1012.4
20260506211604 12 239 6.4 17.7 0.00 0.00 0.00 42 1012.4
20260506211504 11 242 6.4 17.7 0.00 0.00 0.00 41 1012.4
20260506211403 12 242 6.4 17.7 0.00 0.00 0.00 41 1012.4
20260506211304 12 242 6.4 17.7 0.00 0.00 0.00 41 1012.4
20260506211203 12 241 6.4 17.7 0.00 0.00 0.00 41 1012.4
20260506211103 11 240 6.4 17.7 0.00 0.00 0.00 41 1012.4
20260506211004 11 241 6.4 17.7 0.00 0.00 0.00 41 1012.4
20260506210903 11 241 6.4 17.7 0.00 0.00 0.00 41 1012.5
20260506210803 11 244 6.4 17.7 0.00 0.00 0.00 41 1012.5
20260506210724 12 242 6.4 17.7 0.00 0.00 0.00 41 1012.5
20260506210603 11 242 6.4 14.5 0.00 0.00 0.00 42 1012.4
20260506210503 11 245 6.4 14.5 0.00 0.00 0.00 41 1012.4
20260506210404 11 246 6.4 17.7 0.00 0.00 0.00 41 1012.4
20260506210325 11 249 6.4 17.7 0.00 0.00 0.00 41 1012.4
20260506210224 11 247 6.4 17.7 0.00 0.00 0.00 41 1012.5
20260506210124 11 248 6.4 17.7 0.00 0.00 0.00 41 1012.4
20260506210004 11 249 8.0 17.7 0.00 0.00 0.00 42 1012.4
20260506205904 11 247 6.4 17.7 0.00 0.00 0.00 41 1012.5
20260506205803 11 246 6.4 17.7 0.00 0.00 0.00 42 1012.5
20260506205724 11 248 6.4 17.7 0.00 0.00 0.00 43 1012.5
20260506205603 11 251 8.0 17.7 0.00 0.00 0.00 42 1012.5
20260506205525 11 250 8.0 17.7 0.00 0.00 0.00 42 1012.5
20260506205404 11 249 6.4 16.1 0.00 0.00 0.00 41 1012.5
20260506205306 11 247 6.4 16.1 0.00 0.00 0.00 41 1012.6
20260506205203 11 247 6.4 16.1 0.00 0.00 0.00 41 1012.6
20260506205124 11 249 6.4 16.1 0.00 0.00 0.00 42 1012.4
20260506205004 11 250 8.0 19.3 0.00 0.00 0.00 42 1012.5
20260506204904 11 254 8.0 19.3 0.00 0.00 0.00 42 1012.5
20260506204803 11 255 8.0 19.3 0.00 0.00 0.00 41 1012.5
20260506204703 11 251 8.0 19.3 0.00 0.00 0.00 41 1012.5
20260506204603 11 249 8.0 19.3 0.00 0.00 0.00 42 1012.5
20260506204524 11 246 8.0 19.3 0.00 0.00 0.00 42 1012.5
20260506204424 11 241 8.0 19.3 0.00 0.00 0.00 42 1012.5
20260506204303 11 239 8.0 19.3 0.00 0.00 0.00 41 1012.5
20260506204203 11 242 8.0 19.3 0.00 0.00 0.00 41 1012.5
20260506204103 11 239 6.4 19.3 0.00 0.00 0.00 40 1012.6
20260506204004 11 238 6.4 16.1 0.00 0.00 0.00 40 1012.6
20260506203904 11 237 6.4 16.1 0.00 0.00 0.00 40 1012.6
20260506203803 12 234 6.4 12.9 0.00 0.00 0.00 40 1012.5
20260506203703 11 238 6.4 12.9 0.00 0.00 0.00 40 1012.6
20260506203603 12 236 6.4 12.9 0.00 0.00 0.00 40 1012.6
20260506203504 11 244 6.4 14.5 0.00 0.00 0.00 42 1012.6
20260506203403 11 249 8.0 19.3 0.00 0.00 0.00 42 1012.6
20260506203303 11 250 6.4 19.3 0.00 0.00 0.00 42 1012.7
20260506203203 11 247 8.0 19.3 0.00 0.00 0.00 42 1012.7
20260506203103 11 246 8.0 19.3 0.00 0.00 0.00 40 1012.7
20260506203003 11 246 8.0 19.3 0.00 0.00 0.00 41 1012.7
20260506202903 11 244 8.0 19.3 0.00 0.00 0.00 42 1012.7
20260506202803 11 243 8.0 19.3 0.00 0.00 0.00 42 1012.7
20260506202703 11 240 8.0 19.3 0.00 0.00 0.00 41 1012.7
20260506202603 11 241 8.0 19.3 0.00 0.00 0.00 41 1012.7
20260506202504 11 240 6.4 19.3 0.00 0.00 0.00 40 1012.7
20260506202404 11 236 6.4 16.1 0.00 0.00 0.00 41 1012.7
20260506202306 11 235 6.4 16.1 0.00 0.00 0.00 41 1012.7
20260506202203 11 234 6.4 16.1 0.00 0.00 0.00 40 1012.7
20260506202124 11 232 6.4 16.1 0.00 0.00 0.00 42 1012.7
20260506202004 11 235 8.0 16.1 0.00 0.00 0.00 41 1012.8
20260506201903 11 238 8.0 16.1 0.00 0.00 0.00 41 1012.7
20260506201803 11 242 8.0 16.1 0.00 0.00 0.00 42 1012.7
20260506201703 11 247 8.0 16.1 0.00 0.00 0.00 41 1012.7
20260506201603 11 244 8.0 16.1 0.00 0.00 0.00 40 1012.7
20260506201504 11 242 8.0 16.1 0.00 0.00 0.00 42 1012.7
20260506201424 11 241 8.0 16.1 0.00 0.00 0.00 42 1012.7
20260506201303 11 242 8.0 16.1 0.00 0.00 0.00 41 1012.8
20260506201224 11 244 8.0 20.9 0.00 0.00 0.00 42 1012.8
20260506201104 11 248 8.0 20.9 0.00 0.00 0.00 42 1012.8
20260506201003 11 248 8.0 20.9 0.00 0.00 0.00 41 1012.9
20260506200903 11 247 8.0 20.9 0.00 0.00 0.00 42 1012.8
20260506200803 11 243 8.0 20.9 0.00 0.00 0.00 41 1012.8
20260506200724 11 241 8.0 20.9 0.00 0.00 0.00 41 1012.9
20260506200603 11 245 8.0 20.9 0.00 0.00 0.00 42 1012.8
20260506200525 11 247 8.0 20.9 0.00 0.00 0.00 42 1012.8
20260506200403 11 249 8.0 20.9 0.00 0.00 0.00 41 1012.8
20260506200303 11 249 9.7 20.9 0.00 0.00 0.00 42 1012.8
20260506200224 11 250 9.7 22.5 0.00 0.00 0.00 42 1012.8
20260506200104 11 250 9.7 22.5 0.00 0.00 0.00 40 1012.8
20260506200025 11 248 9.7 22.5 0.00 0.00 0.00 41 1012.8
20260506195924 11 247 8.0 22.5 0.00 0.00 0.00 41 1012.8
20260506195804 11 250 8.0 22.5 0.00 0.00 0.00 41 1012.8
20260506195703 11 251 8.0 22.5 0.00 0.00 0.00 40 1012.9
20260506195624 11 250 8.0 22.5 0.00 0.00 0.00 40 1012.9
20260506195524 11 250 8.0 22.5 0.00 0.00 0.00 40 1012.9
20260506195403 11 252 8.0 22.5 0.00 0.00 0.00 40 1012.8
20260506195305 11 252 8.0 22.5 0.00 0.00 0.00 40 1012.8
20260506195203 11 249 8.0 17.7 0.00 0.00 0.00 41 1012.8
20260506195103 11 250 8.0 17.7 0.00 0.00 0.00 41 1012.9
20260506195024 11 252 8.0 17.7 0.00 0.00 0.00 41 1012.9
20260506194903 11 252 8.0 17.7 0.00 0.00 0.00 42 1012.9
20260506194804 11 250 8.0 17.7 0.00 0.00 0.00 41 1012.9
20260506194703 11 250 6.4 17.7 0.00 0.00 0.00 40 1012.9
20260506194625 11 252 6.4 17.7 0.00 0.00 0.00 39 1012.8
20260506194503 11 253 6.4 19.3 0.00 0.00 0.00 40 1012.8
20260506194407 11 251 6.4 19.3 0.00 0.00 0.00 40 1012.9
20260506194307 11 248 6.4 19.3 0.00 0.00 0.00 39 1012.8
20260506194206 11 250 6.4 19.3 0.00 0.00 0.00 40 1012.8
20260506194106 11 251 6.4 19.3 0.00 0.00 0.00 40 1012.8
20260506194006 11 256 6.4 19.3 0.00 0.00 0.00 40 1012.8
20260506193907 11 257 6.4 19.3 0.00 0.00 0.00 41 1012.7
20260506193807 11 261 8.0 19.3 0.00 0.00 0.00 41 1012.8
20260506193706 11 263 8.0 19.3 0.00 0.00 0.00 41 1012.8
20260506193606 11 264 8.0 19.3 0.00 0.00 0.00 41 1012.8
20260506193506 11 264 8.0 17.7 0.00 0.00 0.00 41 1012.8
20260506193407 11 262 8.0 17.7 0.00 0.00 0.00 41 1012.8